Time,TemperatureF,DewpointF,PressureIn,WindDirection,WindDirectionDegrees,WindSpeedMPH,WindSpeedGustMPH,Humidity,HourlyPrecipIn,Conditions,Clouds,dailyrainin,SoftwareType,DateUTC
2013-01-09 00:00:00,35.9,28.8,29.31,South,172,6.0,11.0,75,0.00,,,0.01,WUHU216DAVISVP2,2013-01-09 05:00:00,
2013-01-09 00:01:00,35.9,28.8,29.31,South,189,5.0,11.0,75,0.00,,,0.01,WUHU216DAVISVP2,2013-01-09 05:01:00,
2013-01-09 00:03:00,35.8,28.7,29.31,South,172,8.0,11.0,75,0.00,,,0.01,WUHU216DAVISVP2,2013-01-09 05:03:00,
2013-01-09 00:05:00,35.7,28.6,29.30,South,183,4.0,12.0,75,0.00,,,0.01,WUHU216DAVISVP2,2013-01-09 05:05:00,
2013-01-09 00:06:00,35.7,28.6,29.30,SSW,192,5.0,12.0,75,0.00,,,0.01,WUHU216DAVISVP2,2013-01-09 05:06:00,
2013-01-09 00:08:00,35.6,28.8,29.30,South,183,4.0,12.0,76,0.00,,,0.01,WUHU216DAVISVP2,2013-01-09 05:08:00,
2013-01-09 00:10:00,35.5,28.7,29.30,South,180,3.0,12.0,76,0.00,,,0.01,WUHU216DAVISVP2,2013-01-09 05:10:00,
2013-01-09 00:11:00,35.5,28.7,29.30,South,190,4.0,12.0,76,0.00,,,0.01,WUHU216DAVISVP2,2013-01-09 05:11:00,
2013-01-09 00:13:00,35.4,28.6,29.30,SSW,196,3.0,12.0,76,0.00,,,0.01,WUHU216DAVISVP2,2013-01-09 05:13:00,
2013-01-09 00:15:00,35.4,28.6,29.30,SSW,199,4.0,12.0,76,0.00,,,0.01,WUHU216DAVISVP2,2013-01-09 05:15:00,
2013-01-09 00:16:00,35.5,28.7,29.30,SW,232,5.0,12.0,76,0.00,,,0.01,WUHU216DAVISVP2,2013-01-09 05:16:00,
2013-01-09 00:19:00,35.4,28.6,29.30,South,187,1.0,12.0,76,0.00,,,0.01,WUHU216DAVISVP2,2013-01-09 05:19:00,
2013-01-09 00:20:00,35.4,28.6,29.30,South,191,0.0,12.0,76,0.00,,,0.01,WUHU216DAVISVP2,2013-01-09 05:20:00,
2013-01-09 00:21:00,35.4,28.9,29.30,South,179,2.0,12.0,77,0.00,,,0.01,WUHU216DAVISVP2,2013-01-09 05:21:00,
2013-01-09 00:22:00,35.4,28.6,29.30,SSW,197,1.0,12.0,76,0.00,,,0.01,WUHU216DAVISVP2,2013-01-09 05:22:00,
2013-01-09 00:24:00,35.4,28.9,29.29,South,185,2.0,12.0,77,0.00,,,0.01,WUHU216DAVISVP2,2013-01-09 05:24:00,
2013-01-09 00:25:00,35.4,28.9,29.29,South,174,5.0,10.0,77,0.00,,,0.01,WUHU216DAVISVP2,2013-01-09 05:25:00,
2013-01-09 00:26:00,35.4,28.9,29.29,SSW,194,6.0,10.0,77,0.00,,,0.01,WUHU216DAVISVP2,2013-01-09 05:26:00,
2013-01-09 00:27:00,35.4,28.9,29.29,SW,214,2.0,10.0,77,0.00,,,0.01,WUHU216DAVISVP2,2013-01-09 05:27:00,
2013-01-09 00:29:00,35.5,29.0,29.29,WSW,238,6.0,13.0,77,0.00,,,0.01,WUHU216DAVISVP2,2013-01-09 05:29:00,
2013-01-09 00:30:00,35.6,29.1,29.29,South,187,8.0,15.0,77,0.00,,,0.01,WUHU216DAVISVP2,2013-01-09 05:30:00,
2013-01-09 00:31:00,35.6,29.1,29.29,SSW,199,2.0,15.0,77,0.00,,,0.01,WUHU216DAVISVP2,2013-01-09 05:31:00,
2013-01-09 00:32:00,35.7,29.2,29.29,South,181,6.0,15.0,77,0.00,,,0.01,WUHU216DAVISVP2,2013-01-09 05:32:00,
2013-01-09 00:34:00,35.8,29.3,29.29,WSW,239,11.0,15.0,77,0.00,,,0.01,WUHU216DAVISVP2,2013-01-09 05:34:00,
2013-01-09 00:36:00,35.8,29.3,29.29,SSW,201,7.0,15.0,77,0.00,,,0.01,WUHU216DAVISVP2,2013-01-09 05:36:00,
2013-01-09 00:37:00,35.8,29.3,29.28,SSE,163,7.0,15.0,77,0.00,,,0.01,WUHU216DAVISVP2,2013-01-09 05:37:00,
2013-01-09 00:39:00,35.9,29.4,29.28,South,175,1.0,15.0,77,0.00,,,0.01,WUHU216DAVISVP2,2013-01-09 05:39:00,
2013-01-09 00:41:00,36.0,29.5,29.28,SW,219,6.0,15.0,77,0.00,,,0.01,WUHU216DAVISVP2,2013-01-09 05:41:00,
2013-01-09 00:42:00,36.1,29.6,29.28,SSW,202,4.0,15.0,77,0.00,,,0.01,WUHU216DAVISVP2,2013-01-09 05:42:00,
2013-01-09 00:44:00,36.2,29.7,29.28,South,190,6.0,15.0,77,0.00,,,0.01,WUHU216DAVISVP2,2013-01-09 05:44:00,
2013-01-09 00:46:00,36.2,29.7,29.28,South,188,7.0,15.0,77,0.00,,,0.01,WUHU216DAVISVP2,2013-01-09 05:46:00,
2013-01-09 00:47:00,36.2,29.7,29.28,SW,224,9.0,15.0,77,0.00,,,0.01,WUHU216DAVISVP2,2013-01-09 05:47:00,
2013-01-09 00:49:00,36.3,29.8,29.28,South,189,6.0,19.0,77,0.00,,,0.01,WUHU216DAVISVP2,2013-01-09 05:49:00,
2013-01-09 00:51:00,36.3,29.8,29.28,WSW,252,5.0,20.0,77,0.00,,,0.01,WUHU216DAVISVP2,2013-01-09 05:51:00,
2013-01-09 00:52:00,36.3,29.8,29.28,SSW,202,6.0,21.0,77,0.00,,,0.01,WUHU216DAVISVP2,2013-01-09 05:52:00,
2013-01-09 00:55:00,36.4,29.9,29.28,SW,226,5.0,21.0,77,0.00,,,0.01,WUHU216DAVISVP2,2013-01-09 05:55:00,
2013-01-09 00:56:00,36.4,29.9,29.28,SSW,201,7.0,21.0,77,0.00,,,0.01,WUHU216DAVISVP2,2013-01-09 05:56:00,
2013-01-09 00:57:00,36.4,29.9,29.28,SSW,207,5.0,21.0,77,0.00,,,0.01,WUHU216DAVISVP2,2013-01-09 05:57:00,
2013-01-09 00:58:00,36.4,29.9,29.28,SSW,207,5.0,21.0,77,0.00,,,0.01,WUHU216DAVISVP2,2013-01-09 05:58:00,
2013-01-09 01:00:00,36.5,30.0,29.28,SW,216,4.0,21.0,77,0.00,,,0.01,WUHU216DAVISVP2,2013-01-09 06:00:00,
2013-01-09 01:01:00,36.5,30.0,29.28,WSW,258,7.0,21.0,77,0.00,,,0.01,WUHU216DAVISVP2,2013-01-09 06:01:00,
2013-01-09 01:02:00,36.5,30.0,29.28,SW,230,0.0,21.0,77,0.00,,,0.01,WUHU216DAVISVP2,2013-01-09 06:02:00,
2013-01-09 01:03:00,36.5,30.0,29.28,WSW,239,8.0,21.0,77,0.00,,,0.01,WUHU216DAVISVP2,2013-01-09 06:03:00,
2013-01-09 01:05:00,36.5,30.0,29.28,SW,233,8.0,21.0,77,0.00,,,0.01,WUHU216DAVISVP2,2013-01-09 06:05:00,
2013-01-09 01:06:00,36.6,30.1,29.28,South,189,8.0,21.0,77,0.00,,,0.01,WUHU216DAVISVP2,2013-01-09 06:06:00,
2013-01-09 01:07:00,36.6,30.1,29.28,WSW,245,0.0,21.0,77,0.00,,,0.01,WUHU216DAVISVP2,2013-01-09 06:07:00,
2013-01-09 01:08:00,36.6,30.1,29.28,WSW,244,11.0,21.0,77,0.00,,,0.01,WUHU216DAVISVP2,2013-01-09 06:08:00,
2013-01-09 01:10:00,36.6,30.1,29.28,WSW,241,13.0,21.0,77,0.00,,,0.01,WUHU216DAVISVP2,2013-01-09 06:10:00,
2013-01-09 01:11:00,36.6,30.1,29.28,SSW,213,5.0,20.0,77,0.00,,,0.01,WUHU216DAVISVP2,2013-01-09 06:11:00,
2013-01-09 01:13:00,36.7,30.2,29.28,SSW,202,2.0,20.0,77,0.00,,,0.01,WUHU216DAVISVP2,2013-01-09 06:13:00,
2013-01-09 01:15:00,36.7,30.2,29.28,SW,217,4.0,20.0,77,0.00,,,0.01,WUHU216DAVISVP2,2013-01-09 06:15:00,
2013-01-09 01:16:00,36.7,30.2,29.28,WSW,241,12.0,20.0,77,0.00,,,0.01,WUHU216DAVISVP2,2013-01-09 06:16:00,
2013-01-09 01:18:00,36.7,30.2,29.28,SSW,192,1.0,20.0,77,0.00,,,0.01,WUHU216DAVISVP2,2013-01-09 06:18:00,
2013-01-09 01:19:00,36.8,30.3,29.28,South,188,8.0,20.0,77,0.00,,,0.01,WUHU216DAVISVP2,2013-01-09 06:19:00,
2013-01-09 01:20:00,36.8,30.3,29.28,SSW,210,15.0,20.0,77,0.00,,,0.01,WUHU216DAVISVP2,2013-01-09 06:20:00,
2013-01-09 01:21:00,36.8,30.3,29.28,WSW,245,8.0,20.0,77,0.00,,,0.01,WUHU216DAVISVP2,2013-01-09 06:21:00,
2013-01-09 01:23:00,36.8,30.6,29.28,SW,232,8.0,20.0,78,0.00,,,0.01,WUHU216DAVISVP2,2013-01-09 06:23:00,
2013-01-09 01:24:00,36.8,30.6,29.27,SW,232,9.0,20.0,78,0.00,,,0.01,WUHU216DAVISVP2,2013-01-09 06:24:00,
2013-01-09 01:25:00,36.9,30.7,29.27,SSW,192,5.0,18.0,78,0.00,,,0.01,WUHU216DAVISVP2,2013-01-09 06:25:00,
2013-01-09 01:27:00,37.0,30.8,29.27,SSW,202,4.0,18.0,78,0.00,,,0.01,WUHU216DAVISVP2,2013-01-09 06:27:00,
2013-01-09 01:28:00,37.1,30.9,29.27,SSW,208,1.0,18.0,78,0.00,,,0.01,WUHU216DAVISVP2,2013-01-09 06:28:00,
2013-01-09 01:29:00,37.1,30.9,29.27,SW,220,5.0,18.0,78,0.00,,,0.01,WUHU216DAVISVP2,2013-01-09 06:29:00,
2013-01-09 01:31:00,37.2,30.7,29.27,SW,215,7.0,18.0,77,0.00,,,0.01,WUHU216DAVISVP2,2013-01-09 06:31:00,
2013-01-09 01:32:00,37.2,30.7,29.27,WSW,237,4.0,18.0,77,0.00,,,0.01,WUHU216DAVISVP2,2013-01-09 06:32:00,
2013-01-09 01:34:00,37.4,31.2,29.27,South,187,3.0,18.0,78,0.00,,,0.01,WUHU216DAVISVP2,2013-01-09 06:34:00,
2013-01-09 01:36:00,37.5,31.3,29.27,WSW,239,10.0,18.0,78,0.00,,,0.01,WUHU216DAVISVP2,2013-01-09 06:36:00,
2013-01-09 01:37:00,37.5,31.0,29.27,South,179,9.0,18.0,77,0.00,,,0.01,WUHU216DAVISVP2,2013-01-09 06:37:00,
2013-01-09 01:39:00,37.6,31.4,29.27,SSW,206,5.0,21.0,78,0.00,,,0.01,WUHU216DAVISVP2,2013-01-09 06:39:00,
2013-01-09 01:41:00,37.8,31.3,29.27,South,191,2.0,21.0,77,0.00,,,0.01,WUHU216DAVISVP2,2013-01-09 06:41:00,
2013-01-09 01:42:00,37.9,31.4,29.27,SW,214,1.0,21.0,77,0.00,,,0.01,WUHU216DAVISVP2,2013-01-09 06:42:00,
2013-01-09 01:44:00,38.0,31.5,29.27,SSW,201,4.0,21.0,77,0.00,,,0.01,WUHU216DAVISVP2,2013-01-09 06:44:00,
2013-01-09 01:46:00,38.2,31.7,29.27,SSW,212,6.0,21.0,77,0.00,,,0.01,WUHU216DAVISVP2,2013-01-09 06:46:00,
2013-01-09 01:47:00,38.2,31.7,29.27,South,183,10.0,21.0,77,0.00,,,0.01,WUHU216DAVISVP2,2013-01-09 06:47:00,
2013-01-09 01:49:00,38.2,31.6,29.27,South,179,5.0,21.0,77,0.00,,,0.01,WUHU216DAVISVP2,2013-01-09 06:49:00,
2013-01-09 01:51:00,38.3,31.7,29.27,South,184,14.0,21.0,77,0.00,,,0.01,WUHU216DAVISVP2,2013-01-09 06:51:00,
2013-01-09 01:52:00,38.4,31.8,29.27,SSW,193,5.0,21.0,77,0.00,,,0.01,WUHU216DAVISVP2,2013-01-09 06:52:00,
2013-01-09 01:54:00,38.5,31.9,29.27,SSW,197,5.0,21.0,77,0.00,,,0.01,WUHU216DAVISVP2,2013-01-09 06:54:00,
2013-01-09 01:56:00,38.6,32.0,29.27,SSW,196,10.0,21.0,77,0.00,,,0.01,WUHU216DAVISVP2,2013-01-09 06:56:00,
2013-01-09 01:58:00,38.6,32.0,29.27,SSW,201,8.0,19.0,77,0.00,,,0.01,WUHU216DAVISVP2,2013-01-09 06:58:00,
2013-01-09 01:59:00,38.7,32.1,29.27,SW,226,14.0,19.0,77,0.00,,,0.01,WUHU216DAVISVP2,2013-01-09 06:59:00,
2013-01-09 02:01:00,38.8,32.2,29.27,SSW,195,7.0,18.0,77,0.00,,,0.01,WUHU216DAVISVP2,2013-01-09 07:01:00,
2013-01-09 02:03:00,38.8,32.2,29.27,SW,229,4.0,18.0,77,0.00,,,0.01,WUHU216DAVISVP2,2013-01-09 07:03:00,
2013-01-09 02:04:00,38.9,32.3,29.27,WSW,242,2.0,18.0,77,0.00,,,0.01,WUHU216DAVISVP2,2013-01-09 07:04:00,
2013-01-09 02:05:00,38.9,32.3,29.27,SW,216,4.0,18.0,77,0.00,,,0.01,WUHU216DAVISVP2,2013-01-09 07:05:00,
2013-01-09 02:06:00,39.0,32.4,29.27,SW,222,10.0,20.0,77,0.00,,,0.01,WUHU216DAVISVP2,2013-01-09 07:06:00,
2013-01-09 02:08:00,39.1,32.5,29.27,WSW,246,11.0,20.0,77,0.00,,,0.01,WUHU216DAVISVP2,2013-01-09 07:08:00,
2013-01-09 02:09:00,39.1,32.5,29.27,SW,236,9.0,20.0,77,0.00,,,0.01,WUHU216DAVISVP2,2013-01-09 07:09:00,
2013-01-09 02:10:00,39.1,32.5,29.27,WSW,243,12.0,20.0,77,0.00,,,0.01,WUHU216DAVISVP2,2013-01-09 07:10:00,
2013-01-09 02:11:00,39.2,32.6,29.27,SSW,193,6.0,20.0,77,0.00,,,0.01,WUHU216DAVISVP2,2013-01-09 07:11:00,
2013-01-09 02:13:00,39.2,32.6,29.27,SSW,206,5.0,20.0,77,0.00,,,0.01,WUHU216DAVISVP2,2013-01-09 07:13:00,
2013-01-09 02:14:00,39.2,32.6,29.27,SW,230,4.0,20.0,77,0.00,,,0.01,WUHU216DAVISVP2,2013-01-09 07:14:00,
2013-01-09 02:15:00,39.2,32.6,29.27,WSW,245,14.0,20.0,77,0.00,,,0.01,WUHU216DAVISVP2,2013-01-09 07:15:00,
2013-01-09 02:16:00,39.3,32.7,29.27,SW,232,6.0,20.0,77,0.00,,,0.01,WUHU216DAVISVP2,2013-01-09 07:16:00,
2013-01-09 02:18:00,39.3,32.7,29.27,WSW,237,5.0,20.0,77,0.00,,,0.01,WUHU216DAVISVP2,2013-01-09 07:18:00,
2013-01-09 02:20:00,39.4,32.8,29.27,WSW,255,6.0,20.0,77,0.00,,,0.01,WUHU216DAVISVP2,2013-01-09 07:20:00,
2013-01-09 02:22:00,39.4,32.8,29.27,SW,236,7.0,20.0,77,0.00,,,0.01,WUHU216DAVISVP2,2013-01-09 07:22:00,
2013-01-09 02:23:00,39.5,32.9,29.27,WSW,248,8.0,20.0,77,0.00,,,0.01,WUHU216DAVISVP2,2013-01-09 07:23:00,
2013-01-09 02:25:00,39.5,32.9,29.27,WSW,242,8.0,15.0,77,0.00,,,0.01,WUHU216DAVISVP2,2013-01-09 07:25:00,
2013-01-09 02:27:00,39.6,33.0,29.28,WSW,249,9.0,15.0,77,0.00,,,0.01,WUHU216DAVISVP2,2013-01-09 07:27:00,
2013-01-09 02:28:00,39.6,33.0,29.27,WSW,245,4.0,15.0,77,0.00,,,0.01,WUHU216DAVISVP2,2013-01-09 07:28:00,
2013-01-09 02:30:00,39.6,33.0,29.28,WNW,289,6.0,15.0,77,0.00,,,0.01,WUHU216DAVISVP2,2013-01-09 07:30:00,
2013-01-09 02:31:00,39.7,33.1,29.28,WNW,285,5.0,15.0,77,0.00,,,0.01,WUHU216DAVISVP2,2013-01-09 07:31:00,
2013-01-09 02:32:00,39.6,33.0,29.27,SW,236,6.0,15.0,77,0.00,,,0.01,WUHU216DAVISVP2,2013-01-09 07:32:00,
2013-01-09 02:34:00,39.7,33.1,29.28,SW,234,9.0,15.0,77,0.00,,,0.01,WUHU216DAVISVP2,2013-01-09 07:34:00,
2013-01-09 02:35:00,39.7,33.4,29.28,WSW,250,11.0,16.0,78,0.00,,,0.01,WUHU216DAVISVP2,2013-01-09 07:35:00,
2013-01-09 02:36:00,39.8,33.2,29.27,SW,220,8.0,16.0,77,0.00,,,0.01,WUHU216DAVISVP2,2013-01-09 07:36:00,
2013-01-09 02:37:00,39.8,33.2,29.27,WSW,246,13.0,18.0,77,0.00,,,0.01,WUHU216DAVISVP2,2013-01-09 07:37:00,
2013-01-09 02:39:00,39.9,33.3,29.27,WSW,242,10.0,18.0,77,0.00,,,0.01,WUHU216DAVISVP2,2013-01-09 07:39:00,
2013-01-09 02:40:00,40.0,33.4,29.27,WSW,254,9.0,18.0,77,0.00,,,0.01,WUHU216DAVISVP2,2013-01-09 07:40:00,
2013-01-09 02:41:00,40.0,33.4,29.27,WSW,241,13.0,21.0,77,0.00,,,0.01,WUHU216DAVISVP2,2013-01-09 07:41:00,
2013-01-09 02:42:00,40.0,33.4,29.27,WSW,250,9.0,21.0,77,0.00,,,0.01,WUHU216DAVISVP2,2013-01-09 07:42:00,
2013-01-09 02:44:00,40.1,33.5,29.27,SSW,208,4.0,21.0,77,0.00,,,0.01,WUHU216DAVISVP2,2013-01-09 07:44:00,
2013-01-09 02:45:00,40.1,33.5,29.28,WSW,249,10.0,21.0,77,0.00,,,0.01,WUHU216DAVISVP2,2013-01-09 07:45:00,
2013-01-09 02:46:00,40.1,33.5,29.28,WSW,254,9.0,21.0,77,0.00,,,0.01,WUHU216DAVISVP2,2013-01-09 07:46:00,
2013-01-09 02:47:00,40.1,33.5,29.28,WSW,237,13.0,21.0,77,0.00,,,0.01,WUHU216DAVISVP2,2013-01-09 07:47:00,
2013-01-09 02:49:00,40.1,33.5,29.28,WSW,258,9.0,21.0,77,0.00,,,0.01,WUHU216DAVISVP2,2013-01-09 07:49:00,
2013-01-09 02:50:00,40.2,33.6,29.27,SW,228,9.0,21.0,77,0.00,,,0.01,WUHU216DAVISVP2,2013-01-09 07:50:00,
2013-01-09 02:52:00,40.2,33.6,29.27,SW,227,4.0,21.0,77,0.00,,,0.01,WUHU216DAVISVP2,2013-01-09 07:52:00,
2013-01-09 02:54:00,40.3,33.7,29.27,SW,226,13.0,21.0,77,0.00,,,0.01,WUHU216DAVISVP2,2013-01-09 07:54:00,
2013-01-09 02:55:00,40.3,33.7,29.27,SW,234,6.0,21.0,77,0.00,,,0.01,WUHU216DAVISVP2,2013-01-09 07:55:00,
2013-01-09 02:57:00,40.2,33.6,29.28,WSW,241,9.0,21.0,77,0.00,,,0.01,WUHU216DAVISVP2,2013-01-09 07:57:00,
2013-01-09 02:59:00,40.2,33.6,29.28,SW,231,4.0,21.0,77,0.00,,,0.01,WUHU216DAVISVP2,2013-01-09 07:59:00,
2013-01-09 03:00:00,40.3,33.7,29.27,SW,228,7.0,23.0,77,0.00,,,0.01,WUHU216DAVISVP2,2013-01-09 08:00:00,
2013-01-09 03:02:00,40.4,33.8,29.27,SW,226,14.0,23.0,77,0.00,,,0.01,WUHU216DAVISVP2,2013-01-09 08:02:00,
2013-01-09 03:03:00,40.4,33.8,29.27,WSW,256,7.0,23.0,77,0.00,,,0.01,WUHU216DAVISVP2,2013-01-09 08:03:00,
2013-01-09 03:04:00,40.4,33.8,29.27,SW,218,1.0,23.0,77,0.00,,,0.01,WUHU216DAVISVP2,2013-01-09 08:04:00,
2013-01-09 03:06:00,40.5,33.9,29.28,SSW,192,7.0,23.0,77,0.00,,,0.01,WUHU216DAVISVP2,2013-01-09 08:06:00,
2013-01-09 03:07:00,40.5,33.9,29.28,SSW,213,5.0,23.0,77,0.00,,,0.01,WUHU216DAVISVP2,2013-01-09 08:07:00,
2013-01-09 03:08:00,40.5,33.9,29.28,SW,222,0.0,23.0,77,0.00,,,0.01,WUHU216DAVISVP2,2013-01-09 08:08:00,
2013-01-09 03:09:00,40.5,33.9,29.28,WSW,243,13.0,23.0,77,0.00,,,0.01,WUHU216DAVISVP2,2013-01-09 08:09:00,
2013-01-09 03:11:00,40.6,33.7,29.28,SW,218,5.0,23.0,76,0.00,,,0.01,WUHU216DAVISVP2,2013-01-09 08:11:00,
2013-01-09 03:12:00,40.5,33.6,29.28,WSW,239,6.0,23.0,76,0.00,,,0.01,WUHU216DAVISVP2,2013-01-09 08:12:00,
2013-01-09 03:14:00,40.5,33.9,29.28,SSW,195,4.0,23.0,77,0.00,,,0.01,WUHU216DAVISVP2,2013-01-09 08:14:00,
2013-01-09 03:16:00,40.6,34.0,29.28,SSW,211,4.0,23.0,77,0.00,,,0.01,WUHU216DAVISVP2,2013-01-09 08:16:00,
2013-01-09 03:17:00,40.5,33.9,29.28,SW,231,2.0,23.0,77,0.00,,,0.01,WUHU216DAVISVP2,2013-01-09 08:17:00,
2013-01-09 03:19:00,40.5,33.9,29.28,SSW,206,13.0,24.0,77,0.00,,,0.01,WUHU216DAVISVP2,2013-01-09 08:19:00,
2013-01-09 03:21:00,40.5,33.9,29.28,WSW,237,8.0,24.0,77,0.00,,,0.01,WUHU216DAVISVP2,2013-01-09 08:21:00,
2013-01-09 03:23:00,40.5,33.9,29.28,West,260,18.0,24.0,77,0.00,,,0.01,WUHU216DAVISVP2,2013-01-09 08:23:00,
2013-01-09 03:24:00,40.5,33.9,29.28,SW,233,18.0,24.0,77,0.00,,,0.01,WUHU216DAVISVP2,2013-01-09 08:24:00,
2013-01-09 03:26:00,40.6,34.0,29.28,West,262,7.0,24.0,77,0.00,,,0.01,WUHU216DAVISVP2,2013-01-09 08:26:00,
2013-01-09 03:28:00,40.6,34.0,29.28,SW,235,14.0,24.0,77,0.00,,,0.01,WUHU216DAVISVP2,2013-01-09 08:28:00,
2013-01-09 03:29:00,40.6,34.0,29.28,SSW,211,6.0,24.0,77,0.00,,,0.01,WUHU216DAVISVP2,2013-01-09 08:29:00,
2013-01-09 03:32:00,40.5,33.9,29.28,SSW,208,10.0,24.0,77,0.00,,,0.01,WUHU216DAVISVP2,2013-01-09 08:32:00,
2013-01-09 03:33:00,40.5,33.9,29.28,SSW,192,5.0,24.0,77,0.00,,,0.01,WUHU216DAVISVP2,2013-01-09 08:33:00,
2013-01-09 03:34:00,40.5,33.9,29.28,WSW,245,10.0,24.0,77,0.00,,,0.01,WUHU216DAVISVP2,2013-01-09 08:34:00,
2013-01-09 03:37:00,40.5,33.9,29.28,SSW,210,1.0,22.0,77,0.00,,,0.01,WUHU216DAVISVP2,2013-01-09 08:37:00,
2013-01-09 03:38:00,40.5,33.9,29.28,SW,221,8.0,22.0,77,0.00,,,0.01,WUHU216DAVISVP2,2013-01-09 08:38:00,
2013-01-09 03:39:00,40.5,33.9,29.28,WSW,237,10.0,22.0,77,0.00,,,0.01,WUHU216DAVISVP2,2013-01-09 08:39:00,
2013-01-09 03:40:00,40.5,33.9,29.28,South,191,12.0,22.0,77,0.00,,,0.01,WUHU216DAVISVP2,2013-01-09 08:40:00,
2013-01-09 03:42:00,40.5,33.9,29.28,WSW,248,8.0,22.0,77,0.00,,,0.01,WUHU216DAVISVP2,2013-01-09 08:42:00,
2013-01-09 03:43:00,40.5,33.9,29.28,SW,220,5.0,21.0,77,0.00,,,0.01,WUHU216DAVISVP2,2013-01-09 08:43:00,
2013-01-09 03:44:00,40.5,33.9,29.28,SW,233,7.0,21.0,77,0.00,,,0.01,WUHU216DAVISVP2,2013-01-09 08:44:00,
2013-01-09 03:45:00,40.5,33.9,29.28,WSW,243,10.0,21.0,77,0.00,,,0.01,WUHU216DAVISVP2,2013-01-09 08:45:00,
2013-01-09 03:47:00,40.5,33.9,29.28,SSW,193,9.0,21.0,77,0.00,,,0.01,WUHU216DAVISVP2,2013-01-09 08:47:00,
2013-01-09 03:48:00,40.5,33.9,29.28,SSW,211,5.0,21.0,77,0.00,,,0.01,WUHU216DAVISVP2,2013-01-09 08:48:00,
2013-01-09 03:49:00,40.5,33.9,29.28,WSW,237,10.0,20.0,77,0.00,,,0.01,WUHU216DAVISVP2,2013-01-09 08:49:00,
2013-01-09 03:50:00,40.5,33.9,29.28,South,191,15.0,20.0,77,0.00,,,0.01,WUHU216DAVISVP2,2013-01-09 08:50:00,
2013-01-09 03:52:00,40.5,33.9,29.28,WSW,239,5.0,20.0,77,0.00,,,0.01,WUHU216DAVISVP2,2013-01-09 08:52:00,
2013-01-09 03:53:00,40.5,33.9,29.28,South,185,8.0,20.0,77,0.00,,,0.01,WUHU216DAVISVP2,2013-01-09 08:53:00,
2013-01-09 03:54:00,40.6,34.0,29.28,SW,223,4.0,20.0,77,0.00,,,0.01,WUHU216DAVISVP2,2013-01-09 08:54:00,
2013-01-09 03:55:00,40.5,33.9,29.28,SW,224,4.0,20.0,77,0.00,,,0.01,WUHU216DAVISVP2,2013-01-09 08:55:00,
2013-01-09 03:58:00,40.6,34.0,29.28,SW,228,8.0,20.0,77,0.00,,,0.01,WUHU216DAVISVP2,2013-01-09 08:58:00,
2013-01-09 04:00:00,40.7,34.1,29.28,SSW,201,3.0,18.0,77,0.00,,,0.01,WUHU216DAVISVP2,2013-01-09 09:00:00,
2013-01-09 04:03:00,40.9,34.3,29.28,SW,228,12.0,16.0,77,0.00,,,0.01,WUHU216DAVISVP2,2013-01-09 09:03:00,
2013-01-09 04:06:00,41.1,34.5,29.28,WSW,247,8.0,16.0,77,0.00,,,0.01,WUHU216DAVISVP2,2013-01-09 09:06:00,
2013-01-09 04:08:00,41.2,34.6,29.28,SW,219,7.0,18.0,77,0.00,,,0.01,WUHU216DAVISVP2,2013-01-09 09:08:00,
2013-01-09 04:11:00,41.5,34.5,29.28,SW,214,11.0,19.0,76,0.00,,,0.01,WUHU216DAVISVP2,2013-01-09 09:11:00,
2013-01-09 04:13:00,41.8,34.8,29.28,SW,235,7.0,19.0,76,0.00,,,0.01,WUHU216DAVISVP2,2013-01-09 09:13:00,
2013-01-09 04:14:00,41.8,34.8,29.28,SSW,212,4.0,19.0,76,0.00,,,0.01,WUHU216DAVISVP2,2013-01-09 09:14:00,
2013-01-09 04:16:00,42.0,35.0,29.28,SSW,194,7.0,19.0,76,0.00,,,0.01,WUHU216DAVISVP2,2013-01-09 09:16:00,
2013-01-09 04:18:00,42.3,35.0,29.28,SW,233,6.0,21.0,75,0.00,,,0.01,WUHU216DAVISVP2,2013-01-09 09:18:00,
2013-01-09 04:19:00,42.3,35.0,29.28,WSW,245,8.0,21.0,75,0.00,,,0.01,WUHU216DAVISVP2,2013-01-09 09:19:00,
2013-01-09 04:21:00,42.4,35.1,29.28,WSW,241,13.0,21.0,75,0.00,,,0.01,WUHU216DAVISVP2,2013-01-09 09:21:00,
2013-01-09 04:24:00,42.7,35.1,29.28,West,260,15.0,22.0,74,0.00,,,0.01,WUHU216DAVISVP2,2013-01-09 09:24:00,
2013-01-09 04:26:00,42.9,34.9,29.28,SW,221,6.0,22.0,73,0.00,,,0.01,WUHU216DAVISVP2,2013-01-09 09:26:00,
2013-01-09 04:29:00,43.1,35.1,29.28,WSW,247,18.0,22.0,73,0.00,,,0.01,WUHU216DAVISVP2,2013-01-09 09:29:00,
2013-01-09 04:30:00,43.1,35.1,29.28,WSW,253,8.0,22.0,73,0.00,,,0.01,WUHU216DAVISVP2,2013-01-09 09:30:00,
2013-01-09 04:31:00,43.2,35.2,29.28,SW,236,16.0,22.0,73,0.00,,,0.01,WUHU216DAVISVP2,2013-01-09 09:31:00,
2013-01-09 04:34:00,43.2,35.2,29.28,West,274,8.0,24.0,73,0.00,,,0.01,WUHU216DAVISVP2,2013-01-09 09:34:00,
2013-01-09 04:35:00,43.2,34.9,29.28,West,262,14.0,24.0,72,0.00,,,0.01,WUHU216DAVISVP2,2013-01-09 09:35:00,
2013-01-09 04:36:00,43.3,35.3,29.28,WSW,242,11.0,24.0,73,0.00,,,0.01,WUHU216DAVISVP2,2013-01-09 09:36:00,
2013-01-09 04:37:00,43.2,35.2,29.28,WSW,247,9.0,24.0,73,0.00,,,0.01,WUHU216DAVISVP2,2013-01-09 09:37:00,
2013-01-09 04:39:00,43.2,35.2,29.28,WSW,239,10.0,25.0,73,0.00,,,0.01,WUHU216DAVISVP2,2013-01-09 09:39:00,
2013-01-09 04:40:00,43.2,35.2,29.28,WSW,238,11.0,25.0,73,0.00,,,0.01,WUHU216DAVISVP2,2013-01-09 09:40:00,
2013-01-09 04:41:00,43.2,35.2,29.28,WSW,250,10.0,25.0,73,0.00,,,0.01,WUHU216DAVISVP2,2013-01-09 09:41:00,
2013-01-09 04:42:00,43.2,35.2,29.28,SW,230,11.0,25.0,73,0.00,,,0.01,WUHU216DAVISVP2,2013-01-09 09:42:00,
2013-01-09 04:44:00,43.3,35.3,29.28,WSW,247,10.0,25.0,73,0.00,,,0.01,WUHU216DAVISVP2,2013-01-09 09:44:00,
2013-01-09 04:45:00,43.3,35.0,29.28,WSW,245,14.0,25.0,72,0.00,,,0.01,WUHU216DAVISVP2,2013-01-09 09:45:00,
2013-01-09 04:46:00,43.3,35.0,29.28,West,274,6.0,25.0,72,0.00,,,0.01,WUHU216DAVISVP2,2013-01-09 09:46:00,
2013-01-09 04:47:00,43.3,35.0,29.28,SW,234,12.0,25.0,72,0.00,,,0.01,WUHU216DAVISVP2,2013-01-09 09:47:00,
2013-01-09 04:49:00,43.4,35.1,29.28,South,185,11.0,25.0,72,0.00,,,0.01,WUHU216DAVISVP2,2013-01-09 09:49:00,
2013-01-09 04:51:00,43.4,35.1,29.28,WSW,247,10.0,26.0,72,0.00,,,0.01,WUHU216DAVISVP2,2013-01-09 09:51:00,
2013-01-09 04:52:00,43.4,35.1,29.28,WSW,251,11.0,26.0,72,0.00,,,0.01,WUHU216DAVISVP2,2013-01-09 09:52:00,
2013-01-09 04:54:00,43.4,35.1,29.28,WSW,243,19.0,26.0,72,0.00,,,0.01,WUHU216DAVISVP2,2013-01-09 09:54:00,
2013-01-09 04:56:00,43.4,35.1,29.28,West,263,11.0,26.0,72,0.00,,,0.01,WUHU216DAVISVP2,2013-01-09 09:56:00,
2013-01-09 04:57:00,43.4,35.1,29.28,WSW,243,11.0,26.0,72,0.00,,,0.01,WUHU216DAVISVP2,2013-01-09 09:57:00,
2013-01-09 04:59:00,43.5,35.1,29.29,WSW,249,15.0,26.0,72,0.00,,,0.01,WUHU216DAVISVP2,2013-01-09 09:59:00,
2013-01-09 05:01:00,43.5,35.1,29.29,SW,224,13.0,26.0,72,0.00,,,0.01,WUHU216DAVISVP2,2013-01-09 10:01:00,
2013-01-09 05:02:00,43.5,35.1,29.29,WSW,247,9.0,26.0,72,0.00,,,0.01,WUHU216DAVISVP2,2013-01-09 10:02:00,
2013-01-09 05:04:00,43.4,35.1,29.28,SW,228,7.0,26.0,72,0.00,,,0.01,WUHU216DAVISVP2,2013-01-09 10:04:00,
2013-01-09 05:06:00,43.4,35.1,29.28,WSW,247,23.0,26.0,72,0.00,,,0.01,WUHU216DAVISVP2,2013-01-09 10:06:00,
2013-01-09 05:07:00,43.4,35.1,29.28,SSW,197,4.0,26.0,72,0.00,,,0.01,WUHU216DAVISVP2,2013-01-09 10:07:00,
2013-01-09 05:10:00,43.3,35.0,29.29,WSW,246,14.0,23.0,72,0.00,,,0.01,WUHU216DAVISVP2,2013-01-09 10:10:00,
2013-01-09 05:11:00,43.3,35.3,29.29,WSW,245,18.0,23.0,73,0.00,,,0.01,WUHU216DAVISVP2,2013-01-09 10:11:00,
2013-01-09 05:12:00,43.4,35.4,29.29,WSW,242,9.0,26.0,73,0.00,,,0.01,WUHU216DAVISVP2,2013-01-09 10:12:00,
2013-01-09 05:15:00,43.3,35.3,29.29,WSW,242,10.0,26.0,73,0.00,,,0.01,WUHU216DAVISVP2,2013-01-09 10:15:00,
2013-01-09 05:17:00,43.3,35.3,29.29,WSW,252,8.0,26.0,73,0.00,,,0.01,WUHU216DAVISVP2,2013-01-09 10:17:00,
2013-01-09 05:18:00,43.3,35.3,29.29,WSW,242,11.0,26.0,73,0.00,,,0.01,WUHU216DAVISVP2,2013-01-09 10:18:00,
2013-01-09 05:20:00,43.3,35.3,29.29,West,266,9.0,26.0,73,0.00,,,0.01,WUHU216DAVISVP2,2013-01-09 10:20:00,
2013-01-09 05:22:00,43.3,35.3,29.30,WSW,247,9.0,26.0,73,0.00,,,0.01,WUHU216DAVISVP2,2013-01-09 10:22:00,
2013-01-09 05:23:00,43.5,35.5,29.30,WSW,253,10.0,26.0,73,0.00,,,0.01,WUHU216DAVISVP2,2013-01-09 10:23:00,
2013-01-09 05:25:00,43.5,35.5,29.29,WSW,244,21.0,26.0,73,0.00,,,0.01,WUHU216DAVISVP2,2013-01-09 10:25:00,
2013-01-09 05:27:00,43.6,35.6,29.29,WSW,258,14.0,27.0,73,0.00,,,0.01,WUHU216DAVISVP2,2013-01-09 10:27:00,
2013-01-09 05:28:00,43.6,35.6,29.28,SW,230,14.0,27.0,73,0.00,,,0.01,WUHU216DAVISVP2,2013-01-09 10:28:00,
2013-01-09 05:30:00,43.6,35.6,29.28,WSW,253,12.0,27.0,73,0.00,,,0.01,WUHU216DAVISVP2,2013-01-09 10:30:00,
2013-01-09 05:32:00,43.7,35.7,29.28,WSW,247,15.0,27.0,73,0.00,,,0.01,WUHU216DAVISVP2,2013-01-09 10:32:00,
2013-01-09 05:33:00,43.7,35.7,29.28,WSW,239,19.0,27.0,73,0.00,,,0.01,WUHU216DAVISVP2,2013-01-09 10:33:00,
2013-01-09 05:35:00,43.8,35.8,29.28,WSW,243,8.0,27.0,73,0.00,,,0.01,WUHU216DAVISVP2,2013-01-09 10:35:00,
2013-01-09 05:37:00,43.8,35.8,29.29,WNW,288,18.0,27.0,73,0.00,,,0.01,WUHU216DAVISVP2,2013-01-09 10:37:00,
2013-01-09 05:39:00,43.8,35.8,29.29,WSW,248,10.0,27.0,73,0.00,,,0.01,WUHU216DAVISVP2,2013-01-09 10:39:00,
2013-01-09 05:40:00,43.8,35.8,29.29,WSW,251,12.0,27.0,73,0.00,,,0.01,WUHU216DAVISVP2,2013-01-09 10:40:00,
2013-01-09 05:42:00,43.7,35.7,29.30,WSW,255,24.0,27.0,73,0.00,,,0.01,WUHU216DAVISVP2,2013-01-09 10:42:00,
2013-01-09 05:44:00,43.8,35.8,29.29,WSW,237,19.0,27.0,73,0.00,,,0.01,WUHU216DAVISVP2,2013-01-09 10:44:00,
2013-01-09 05:45:00,43.8,35.8,29.29,SW,218,16.0,27.0,73,0.00,,,0.01,WUHU216DAVISVP2,2013-01-09 10:45:00,
2013-01-09 05:47:00,43.8,35.8,29.29,West,260,9.0,26.0,73,0.00,,,0.01,WUHU216DAVISVP2,2013-01-09 10:47:00,
2013-01-09 05:49:00,43.8,35.8,29.29,WSW,253,12.0,25.0,73,0.00,,,0.01,WUHU216DAVISVP2,2013-01-09 10:49:00,
2013-01-09 05:50:00,43.8,35.8,29.29,WSW,256,9.0,25.0,73,0.00,,,0.01,WUHU216DAVISVP2,2013-01-09 10:50:00,
2013-01-09 05:52:00,43.8,35.8,29.29,West,261,13.0,25.0,73,0.00,,,0.01,WUHU216DAVISVP2,2013-01-09 10:52:00,
2013-01-09 05:53:00,43.8,35.8,29.28,West,272,13.0,25.0,73,0.00,,,0.01,WUHU216DAVISVP2,2013-01-09 10:53:00,
2013-01-09 05:54:00,43.7,35.7,29.28,West,264,18.0,25.0,73,0.00,,,0.01,WUHU216DAVISVP2,2013-01-09 10:54:00,
2013-01-09 05:55:00,43.7,35.7,29.28,WSW,250,10.0,25.0,73,0.00,,,0.01,WUHU216DAVISVP2,2013-01-09 10:55:00,
2013-01-09 05:57:00,43.7,35.7,29.29,WSW,237,13.0,25.0,73,0.00,,,0.01,WUHU216DAVISVP2,2013-01-09 10:57:00,
2013-01-09 05:58:00,43.7,35.7,29.29,WSW,256,9.0,25.0,73,0.00,,,0.01,WUHU216DAVISVP2,2013-01-09 10:58:00,
2013-01-09 05:59:00,43.7,35.7,29.30,WNW,291,16.0,25.0,73,0.00,,,0.01,WUHU216DAVISVP2,2013-01-09 10:59:00,
2013-01-09 06:00:00,43.7,35.7,29.30,SSW,208,20.0,25.0,73,0.00,,,0.01,WUHU216DAVISVP2,2013-01-09 11:00:00,
2013-01-09 06:02:00,43.7,35.7,29.29,West,266,13.0,25.0,73,0.00,,,0.01,WUHU216DAVISVP2,2013-01-09 11:02:00,
2013-01-09 06:03:00,43.7,35.7,29.30,West,271,18.0,25.0,73,0.00,,,0.01,WUHU216DAVISVP2,2013-01-09 11:03:00,
2013-01-09 06:05:00,43.7,36.0,29.29,WSW,255,13.0,25.0,74,0.00,,,0.01,WUHU216DAVISVP2,2013-01-09 11:05:00,
2013-01-09 06:07:00,43.7,36.0,29.29,West,260,13.0,25.0,74,0.00,,,0.01,WUHU216DAVISVP2,2013-01-09 11:07:00,
2013-01-09 06:08:00,43.7,36.0,29.29,WSW,248,12.0,25.0,74,0.00,,,0.01,WUHU216DAVISVP2,2013-01-09 11:08:00,
2013-01-09 06:10:00,43.6,35.9,29.29,West,264,9.0,25.0,74,0.00,,,0.01,WUHU216DAVISVP2,2013-01-09 11:10:00,
2013-01-09 06:12:00,43.6,35.9,29.29,WSW,253,15.0,25.0,74,0.00,,,0.01,WUHU216DAVISVP2,2013-01-09 11:12:00,
2013-01-09 06:13:00,43.6,35.9,29.29,WSW,256,11.0,25.0,74,0.00,,,0.01,WUHU216DAVISVP2,2013-01-09 11:13:00,
2013-01-09 06:15:00,43.4,35.7,29.29,WSW,253,14.0,25.0,74,0.00,,,0.01,WUHU216DAVISVP2,2013-01-09 11:15:00,
2013-01-09 06:16:00,43.4,35.7,29.29,West,262,13.0,25.0,74,0.00,,,0.01,WUHU216DAVISVP2,2013-01-09 11:16:00,
2013-01-09 06:18:00,43.4,35.7,29.29,West,261,10.0,25.0,74,0.00,,,0.01,WUHU216DAVISVP2,2013-01-09 11:18:00,
2013-01-09 06:20:00,43.4,35.7,29.30,West,270,14.0,25.0,74,0.00,,,0.01,WUHU216DAVISVP2,2013-01-09 11:20:00,
2013-01-09 06:21:00,43.3,35.6,29.30,West,262,12.0,25.0,74,0.00,,,0.01,WUHU216DAVISVP2,2013-01-09 11:21:00,
2013-01-09 06:23:00,43.2,35.9,29.30,WSW,252,13.0,24.0,75,0.00,,,0.01,WUHU216DAVISVP2,2013-01-09 11:23:00,
2013-01-09 06:25:00,43.2,35.9,29.30,WSW,253,13.0,24.0,75,0.00,,,0.01,WUHU216DAVISVP2,2013-01-09 11:25:00,
2013-01-09 06:26:00,43.2,35.9,29.31,West,261,18.0,24.0,75,0.00,,,0.01,WUHU216DAVISVP2,2013-01-09 11:26:00,
2013-01-09 06:28:00,43.2,35.9,29.31,West,272,10.0,24.0,75,0.00,,,0.01,WUHU216DAVISVP2,2013-01-09 11:28:00,
2013-01-09 06:30:00,43.2,35.9,29.31,West,262,12.0,23.0,75,0.00,,,0.01,WUHU216DAVISVP2,2013-01-09 11:30:00,
2013-01-09 06:31:00,43.2,35.9,29.31,WSW,257,7.0,23.0,75,0.00,,,0.01,WUHU216DAVISVP2,2013-01-09 11:31:00,
2013-01-09 06:33:00,43.1,35.8,29.31,West,274,18.0,23.0,75,0.00,,,0.01,WUHU216DAVISVP2,2013-01-09 11:33:00,
2013-01-09 06:35:00,43.1,35.8,29.30,West,280,11.0,23.0,75,0.00,,,0.01,WUHU216DAVISVP2,2013-01-09 11:35:00,
2013-01-09 06:37:00,43.0,35.7,29.31,West,279,10.0,23.0,75,0.00,,,0.01,WUHU216DAVISVP2,2013-01-09 11:37:00,
2013-01-09 06:38:00,43.0,35.7,29.31,West,272,15.0,23.0,75,0.00,,,0.01,WUHU216DAVISVP2,2013-01-09 11:38:00,
2013-01-09 06:39:00,43.0,35.7,29.31,West,272,15.0,23.0,75,0.00,,,0.01,WUHU216DAVISVP2,2013-01-09 11:39:00,
2013-01-09 06:41:00,42.9,35.6,29.31,West,268,21.0,22.0,75,0.00,,,0.01,WUHU216DAVISVP2,2013-01-09 11:41:00,
2013-01-09 06:42:00,42.9,35.6,29.31,WSW,243,16.0,22.0,75,0.00,,,0.01,WUHU216DAVISVP2,2013-01-09 11:42:00,
2013-01-09 06:43:00,42.9,35.9,29.30,West,262,14.0,22.0,76,0.00,,,0.01,WUHU216DAVISVP2,2013-01-09 11:43:00,
2013-01-09 06:44:00,42.8,35.8,29.30,West,266,11.0,22.0,76,0.00,,,0.01,WUHU216DAVISVP2,2013-01-09 11:44:00,
2013-01-09 06:46:00,42.9,35.9,29.31,West,275,10.0,22.0,76,0.00,,,0.01,WUHU216DAVISVP2,2013-01-09 11:46:00,
2013-01-09 06:47:00,42.8,35.8,29.31,WSW,252,7.0,22.0,76,0.00,,,0.01,WUHU216DAVISVP2,2013-01-09 11:47:00,
2013-01-09 06:48:00,42.8,35.8,29.31,West,263,15.0,22.0,76,0.00,,,0.01,WUHU216DAVISVP2,2013-01-09 11:48:00,
2013-01-09 06:49:00,42.8,35.8,29.31,West,260,14.0,22.0,76,0.00,,,0.01,WUHU216DAVISVP2,2013-01-09 11:49:00,
2013-01-09 06:51:00,42.8,35.8,29.31,WSW,258,13.0,23.0,76,0.00,,,0.01,WUHU216DAVISVP2,2013-01-09 11:51:00,
2013-01-09 06:53:00,42.8,35.8,29.31,West,259,12.0,23.0,76,0.00,,,0.01,WUHU216DAVISVP2,2013-01-09 11:53:00,
2013-01-09 06:54:00,42.8,35.8,29.32,WSW,245,13.0,23.0,76,0.00,,,0.01,WUHU216DAVISVP2,2013-01-09 11:54:00,
2013-01-09 06:56:00,42.8,35.8,29.31,West,263,11.0,23.0,76,0.00,,,0.01,WUHU216DAVISVP2,2013-01-09 11:56:00,
2013-01-09 06:58:00,42.7,35.7,29.32,West,259,9.0,23.0,76,0.00,,,0.01,WUHU216DAVISVP2,2013-01-09 11:58:00,
2013-01-09 06:59:00,42.7,35.7,29.32,WSW,251,11.0,23.0,76,0.00,,,0.01,WUHU216DAVISVP2,2013-01-09 11:59:00,
2013-01-09 07:01:00,42.6,35.9,29.32,West,262,9.0,23.0,77,0.00,,,0.01,WUHU216DAVISVP2,2013-01-09 12:01:00,
2013-01-09 07:03:00,42.5,35.8,29.32,WSW,244,13.0,23.0,77,0.00,,,0.01,WUHU216DAVISVP2,2013-01-09 12:03:00,
2013-01-09 07:04:00,42.5,35.8,29.32,West,264,11.0,23.0,77,0.00,,,0.01,WUHU216DAVISVP2,2013-01-09 12:04:00,
2013-01-09 07:06:00,42.6,35.9,29.32,WSW,245,7.0,23.0,77,0.00,,,0.01,WUHU216DAVISVP2,2013-01-09 12:06:00,
2013-01-09 07:08:00,42.5,35.8,29.32,WNW,283,8.0,23.0,77,0.00,,,0.01,WUHU216DAVISVP2,2013-01-09 12:08:00,
2013-01-09 07:09:00,42.5,35.8,29.32,West,260,10.0,22.0,77,0.00,,,0.01,WUHU216DAVISVP2,2013-01-09 12:09:00,
2013-01-09 07:11:00,42.5,35.8,29.32,West,260,11.0,22.0,77,0.00,,,0.01,WUHU216DAVISVP2,2013-01-09 12:11:00,
2013-01-09 07:13:00,42.5,35.8,29.32,West,266,11.0,22.0,77,0.00,,,0.01,WUHU216DAVISVP2,2013-01-09 12:13:00,
2013-01-09 07:14:00,42.5,35.8,29.32,WSW,256,12.0,22.0,77,0.00,,,0.01,WUHU216DAVISVP2,2013-01-09 12:14:00,
2013-01-09 07:15:00,42.5,35.8,29.32,West,268,12.0,22.0,77,0.00,,,0.01,WUHU216DAVISVP2,2013-01-09 12:15:00,
2013-01-09 07:17:00,42.4,35.7,29.32,West,261,12.0,22.0,77,0.00,,,0.01,WUHU216DAVISVP2,2013-01-09 12:17:00,
2013-01-09 07:18:00,42.4,36.1,29.32,WSW,243,12.0,23.0,78,0.00,,,0.01,WUHU216DAVISVP2,2013-01-09 12:18:00,
2013-01-09 07:19:00,42.4,35.7,29.32,West,272,14.0,23.0,77,0.00,,,0.01,WUHU216DAVISVP2,2013-01-09 12:19:00,
2013-01-09 07:20:00,42.4,35.7,29.32,West,274,13.0,23.0,77,0.00,,,0.01,WUHU216DAVISVP2,2013-01-09 12:20:00,
2013-01-09 07:22:00,42.5,35.8,29.32,WSW,248,14.0,23.0,77,0.00,,,0.01,WUHU216DAVISVP2,2013-01-09 12:22:00,
2013-01-09 07:23:00,42.5,35.8,29.33,WSW,258,9.0,23.0,77,0.00,,,0.01,WUHU216DAVISVP2,2013-01-09 12:23:00,
2013-01-09 07:24:00,42.4,35.7,29.33,West,277,13.0,23.0,77,0.00,,,0.01,WUHU216DAVISVP2,2013-01-09 12:24:00,
2013-01-09 07:25:00,42.4,35.7,29.33,West,276,11.0,23.0,77,0.00,,,0.01,WUHU216DAVISVP2,2013-01-09 12:25:00,
2013-01-09 07:27:00,42.3,36.0,29.33,West,262,8.0,23.0,78,0.00,,,0.01,WUHU216DAVISVP2,2013-01-09 12:27:00,
2013-01-09 07:28:00,42.3,36.0,29.33,West,263,8.0,23.0,78,0.00,,,0.01,WUHU216DAVISVP2,2013-01-09 12:28:00,
2013-01-09 07:29:00,42.2,35.9,29.33,West,270,11.0,23.0,78,0.00,,,0.01,WUHU216DAVISVP2,2013-01-09 12:29:00,
2013-01-09 07:30:00,42.2,35.9,29.33,West,265,20.0,23.0,78,0.00,,,0.01,WUHU216DAVISVP2,2013-01-09 12:30:00,
2013-01-09 07:32:00,42.2,35.9,29.34,West,270,15.0,23.0,78,0.00,,,0.01,WUHU216DAVISVP2,2013-01-09 12:32:00,
2013-01-09 07:34:00,42.2,35.9,29.34,West,274,12.0,23.0,78,0.00,,,0.01,WUHU216DAVISVP2,2013-01-09 12:34:00,
2013-01-09 07:35:00,42.2,35.9,29.34,West,275,10.0,23.0,78,0.00,,,0.01,WUHU216DAVISVP2,2013-01-09 12:35:00,
2013-01-09 07:37:00,42.2,35.9,29.34,West,260,13.0,20.0,78,0.00,,,0.01,WUHU216DAVISVP2,2013-01-09 12:37:00,
2013-01-09 07:39:00,42.2,35.9,29.34,West,262,12.0,20.0,78,0.00,,,0.01,WUHU216DAVISVP2,2013-01-09 12:39:00,
2013-01-09 07:40:00,42.2,35.9,29.34,West,262,8.0,20.0,78,0.00,,,0.01,WUHU216DAVISVP2,2013-01-09 12:40:00,
2013-01-09 07:42:00,42.0,35.6,29.34,West,264,7.0,20.0,78,0.00,,,0.01,WUHU216DAVISVP2,2013-01-09 12:42:00,
2013-01-09 07:44:00,42.0,35.6,29.34,West,266,12.0,20.0,78,0.00,,,0.01,WUHU216DAVISVP2,2013-01-09 12:44:00,
2013-01-09 07:45:00,42.0,35.6,29.34,West,266,10.0,20.0,78,0.00,,,0.01,WUHU216DAVISVP2,2013-01-09 12:45:00,
2013-01-09 07:47:00,41.9,35.9,29.35,WSW,251,12.0,20.0,79,0.00,,,0.01,WUHU216DAVISVP2,2013-01-09 12:47:00,
2013-01-09 07:49:00,41.8,35.8,29.35,West,261,9.0,20.0,79,0.00,,,0.01,WUHU216DAVISVP2,2013-01-09 12:49:00,
2013-01-09 07:50:00,41.8,35.8,29.35,West,266,10.0,20.0,79,0.00,,,0.01,WUHU216DAVISVP2,2013-01-09 12:50:00,
2013-01-09 07:53:00,41.8,35.8,29.35,West,262,6.0,20.0,79,0.00,,,0.01,WUHU216DAVISVP2,2013-01-09 12:53:00,
2013-01-09 07:55:00,41.9,35.9,29.35,West,260,7.0,20.0,79,0.00,,,0.01,WUHU216DAVISVP2,2013-01-09 12:55:00,
2013-01-09 07:56:00,41.9,35.9,29.35,West,271,13.0,15.0,79,0.00,,,0.01,WUHU216DAVISVP2,2013-01-09 12:56:00,
2013-01-09 07:58:00,41.8,35.8,29.35,West,274,8.0,18.0,79,0.00,,,0.01,WUHU216DAVISVP2,2013-01-09 12:58:00,
2013-01-09 08:00:00,41.8,35.8,29.35,West,268,10.0,18.0,79,0.00,,,0.01,WUHU216DAVISVP2,2013-01-09 13:00:00,
2013-01-09 08:01:00,41.7,35.7,29.35,West,269,14.0,18.0,79,0.00,,,0.01,WUHU216DAVISVP2,2013-01-09 13:01:00,
2013-01-09 08:03:00,41.7,35.7,29.36,West,279,7.0,18.0,79,0.00,,,0.01,WUHU216DAVISVP2,2013-01-09 13:03:00,
2013-01-09 08:05:00,41.6,35.6,29.36,West,271,14.0,18.0,79,0.00,,,0.01,WUHU216DAVISVP2,2013-01-09 13:05:00,
2013-01-09 08:06:00,41.6,35.6,29.36,WSW,243,10.0,18.0,79,0.00,,,0.01,WUHU216DAVISVP2,2013-01-09 13:06:00,
2013-01-09 08:08:00,41.6,35.6,29.36,WSW,242,12.0,18.0,79,0.00,,,0.01,WUHU216DAVISVP2,2013-01-09 13:08:00,
2013-01-09 08:10:00,41.5,35.5,29.36,West,261,16.0,18.0,79,0.00,,,0.01,WUHU216DAVISVP2,2013-01-09 13:10:00,
2013-01-09 08:11:00,41.5,35.8,29.36,WNW,287,7.0,18.0,80,0.00,,,0.01,WUHU216DAVISVP2,2013-01-09 13:11:00,
2013-01-09 08:13:00,41.6,35.9,29.37,WNW,297,9.0,18.0,80,0.00,,,0.01,WUHU216DAVISVP2,2013-01-09 13:13:00,
2013-01-09 08:15:00,41.5,35.8,29.37,West,262,14.0,18.0,80,0.00,,,0.01,WUHU216DAVISVP2,2013-01-09 13:15:00,
2013-01-09 08:16:00,41.5,35.8,29.37,West,266,9.0,18.0,80,0.00,,,0.01,WUHU216DAVISVP2,2013-01-09 13:16:00,
2013-01-09 08:17:00,41.5,35.8,29.37,West,259,15.0,18.0,80,0.00,,,0.01,WUHU216DAVISVP2,2013-01-09 13:17:00,
2013-01-09 08:19:00,41.5,35.8,29.37,West,269,14.0,18.0,80,0.00,,,0.01,WUHU216DAVISVP2,2013-01-09 13:19:00,
2013-01-09 08:20:00,41.5,35.8,29.37,West,274,16.0,19.0,80,0.00,,,0.01,WUHU216DAVISVP2,2013-01-09 13:20:00,
2013-01-09 08:21:00,41.5,35.8,29.37,West,278,11.0,19.0,80,0.00,,,0.01,WUHU216DAVISVP2,2013-01-09 13:21:00,
2013-01-09 08:22:00,41.5,35.8,29.37,West,262,13.0,19.0,80,0.00,,,0.01,WUHU216DAVISVP2,2013-01-09 13:22:00,
2013-01-09 08:24:00,41.4,35.7,29.37,West,266,9.0,19.0,80,0.00,,,0.01,WUHU216DAVISVP2,2013-01-09 13:24:00,
2013-01-09 08:25:00,41.4,35.7,29.37,WSW,251,7.0,19.0,80,0.00,,,0.01,WUHU216DAVISVP2,2013-01-09 13:25:00,
2013-01-09 08:26:00,41.4,35.7,29.37,West,264,8.0,19.0,80,0.00,,,0.01,WUHU216DAVISVP2,2013-01-09 13:26:00,
2013-01-09 08:27:00,41.3,35.6,29.37,West,274,8.0,19.0,80,0.00,,,0.01,WUHU216DAVISVP2,2013-01-09 13:27:00,
2013-01-09 08:29:00,41.2,35.5,29.37,West,276,9.0,19.0,80,0.00,,,0.01,WUHU216DAVISVP2,2013-01-09 13:29:00,
2013-01-09 08:30:00,41.1,35.4,29.37,WNW,294,9.0,19.0,80,0.00,,,0.01,WUHU216DAVISVP2,2013-01-09 13:30:00,
2013-01-09 08:31:00,41.1,35.4,29.37,West,262,11.0,19.0,80,0.00,,,0.01,WUHU216DAVISVP2,2013-01-09 13:31:00,
2013-01-09 08:32:00,41.1,35.4,29.37,West,276,9.0,19.0,80,0.00,,,0.01,WUHU216DAVISVP2,2013-01-09 13:32:00,
2013-01-09 08:34:00,41.0,35.3,29.38,WSW,258,6.0,19.0,80,0.00,,,0.01,WUHU216DAVISVP2,2013-01-09 13:34:00,
2013-01-09 08:35:00,40.9,35.2,29.38,West,274,11.0,19.0,80,0.00,,,0.01,WUHU216DAVISVP2,2013-01-09 13:35:00,
2013-01-09 08:36:00,40.9,35.5,29.38,West,270,12.0,19.0,81,0.00,,,0.01,WUHU216DAVISVP2,2013-01-09 13:36:00,
2013-01-09 08:37:00,40.9,35.5,29.38,WSW,254,12.0,19.0,81,0.00,,,0.01,WUHU216DAVISVP2,2013-01-09 13:37:00,
2013-01-09 08:39:00,40.9,35.5,29.38,WSW,249,10.0,16.0,81,0.00,,,0.01,WUHU216DAVISVP2,2013-01-09 13:39:00,
2013-01-09 08:40:00,40.9,35.5,29.38,WNW,285,12.0,16.0,81,0.00,,,0.01,WUHU216DAVISVP2,2013-01-09 13:40:00,
2013-01-09 08:41:00,40.9,35.5,29.38,WSW,256,14.0,16.0,81,0.00,,,0.01,WUHU216DAVISVP2,2013-01-09 13:41:00,
2013-01-09 08:42:00,40.9,35.5,29.38,West,260,12.0,16.0,81,0.00,,,0.01,WUHU216DAVISVP2,2013-01-09 13:42:00,
2013-01-09 08:45:00,40.9,35.5,29.38,West,269,7.0,16.0,81,0.00,,,0.01,WUHU216DAVISVP2,2013-01-09 13:45:00,
2013-01-09 08:46:00,40.9,35.5,29.38,WSW,251,13.0,16.0,81,0.00,,,0.01,WUHU216DAVISVP2,2013-01-09 13:46:00,
2013-01-09 08:48:00,40.9,35.5,29.38,West,266,12.0,18.0,81,0.00,,,0.01,WUHU216DAVISVP2,2013-01-09 13:48:00,
2013-01-09 08:50:00,40.9,35.5,29.38,WSW,257,11.0,18.0,81,0.00,,,0.01,WUHU216DAVISVP2,2013-01-09 13:50:00,
2013-01-09 08:51:00,40.9,35.5,29.38,WNW,284,8.0,18.0,81,0.00,,,0.01,WUHU216DAVISVP2,2013-01-09 13:51:00,
2013-01-09 08:53:00,40.9,35.5,29.38,WSW,257,7.0,18.0,81,0.00,,,0.01,WUHU216DAVISVP2,2013-01-09 13:53:00,
2013-01-09 08:55:00,40.9,35.5,29.39,WSW,243,6.0,18.0,81,0.00,,,0.01,WUHU216DAVISVP2,2013-01-09 13:55:00,
2013-01-09 08:56:00,40.9,35.5,29.39,West,272,7.0,19.0,81,0.00,,,0.01,WUHU216DAVISVP2,2013-01-09 13:56:00,
2013-01-09 08:58:00,40.9,35.5,29.39,WSW,248,15.0,19.0,81,0.00,,,0.01,WUHU216DAVISVP2,2013-01-09 13:58:00,
2013-01-09 09:00:00,40.9,35.5,29.39,West,277,12.0,19.0,81,0.00,,,0.01,WUHU216DAVISVP2,2013-01-09 14:00:00,
2013-01-09 09:01:00,40.9,35.5,29.39,WNW,285,11.0,19.0,81,0.00,,,0.01,WUHU216DAVISVP2,2013-01-09 14:01:00,
2013-01-09 09:03:00,40.9,35.5,29.39,West,262,7.0,19.0,81,0.00,,,0.01,WUHU216DAVISVP2,2013-01-09 14:03:00,
2013-01-09 09:05:00,40.9,35.5,29.39,West,268,18.0,21.0,81,0.00,,,0.01,WUHU216DAVISVP2,2013-01-09 14:05:00,
2013-01-09 09:06:00,40.9,35.5,29.39,West,276,10.0,21.0,81,0.00,,,0.01,WUHU216DAVISVP2,2013-01-09 14:06:00,
2013-01-09 09:07:00,40.9,35.5,29.39,WSW,256,11.0,21.0,81,0.00,,,0.01,WUHU216DAVISVP2,2013-01-09 14:07:00,
2013-01-09 09:08:00,40.9,35.5,29.39,WNW,285,10.0,21.0,81,0.00,,,0.01,WUHU216DAVISVP2,2013-01-09 14:08:00,
2013-01-09 09:10:00,40.9,35.5,29.40,West,280,11.0,21.0,81,0.00,,,0.01,WUHU216DAVISVP2,2013-01-09 14:10:00,
2013-01-09 09:11:00,40.9,35.5,29.40,WSW,256,10.0,21.0,81,0.00,,,0.01,WUHU216DAVISVP2,2013-01-09 14:11:00,
2013-01-09 09:12:00,40.9,35.5,29.40,WSW,255,7.0,21.0,81,0.00,,,0.01,WUHU216DAVISVP2,2013-01-09 14:12:00,
2013-01-09 09:13:00,40.9,35.5,29.40,WSW,245,8.0,21.0,81,0.00,,,0.01,WUHU216DAVISVP2,2013-01-09 14:13:00,
2013-01-09 09:15:00,41.0,35.3,29.40,West,270,4.0,21.0,80,0.00,,,0.01,WUHU216DAVISVP2,2013-01-09 14:15:00,
2013-01-09 09:16:00,41.0,35.3,29.40,WSW,246,8.0,21.0,80,0.00,,,0.01,WUHU216DAVISVP2,2013-01-09 14:16:00,
2013-01-09 09:17:00,41.0,35.3,29.40,WNW,300,13.0,21.0,80,0.00,,,0.01,WUHU216DAVISVP2,2013-01-09 14:17:00,
2013-01-09 09:18:00,41.0,35.3,29.40,West,265,10.0,21.0,80,0.00,,,0.01,WUHU216DAVISVP2,2013-01-09 14:18:00,
2013-01-09 09:20:00,41.0,35.3,29.41,West,270,12.0,21.0,80,0.00,,,0.01,WUHU216DAVISVP2,2013-01-09 14:20:00,
2013-01-09 09:21:00,41.0,35.3,29.41,WNW,284,10.0,21.0,80,0.00,,,0.01,WUHU216DAVISVP2,2013-01-09 14:21:00,
2013-01-09 09:22:00,41.1,35.4,29.41,West,262,13.0,21.0,80,0.00,,,0.01,WUHU216DAVISVP2,2013-01-09 14:22:00,
2013-01-09 09:24:00,41.1,35.4,29.41,WNW,283,16.0,21.0,80,0.00,,,0.01,WUHU216DAVISVP2,2013-01-09 14:24:00,
2013-01-09 09:25:00,41.1,35.4,29.41,WNW,285,13.0,18.0,80,0.00,,,0.01,WUHU216DAVISVP2,2013-01-09 14:25:00,
2013-01-09 09:26:00,41.1,35.4,29.41,West,262,12.0,18.0,80,0.00,,,0.01,WUHU216DAVISVP2,2013-01-09 14:26:00,
2013-01-09 09:28:00,41.1,35.4,29.42,West,274,11.0,18.0,80,0.00,,,0.01,WUHU216DAVISVP2,2013-01-09 14:28:00,
2013-01-09 09:30:00,41.1,35.4,29.42,West,266,16.0,20.0,80,0.00,,,0.01,WUHU216DAVISVP2,2013-01-09 14:30:00,
2013-01-09 09:31:00,41.1,35.4,29.42,West,273,8.0,20.0,80,0.00,,,0.01,WUHU216DAVISVP2,2013-01-09 14:31:00,
2013-01-09 09:33:00,41.1,35.4,29.41,West,264,12.0,20.0,80,0.00,,,0.01,WUHU216DAVISVP2,2013-01-09 14:33:00,
2013-01-09 09:34:00,41.1,35.4,29.42,West,265,11.0,20.0,80,0.00,,,0.01,WUHU216DAVISVP2,2013-01-09 14:34:00,
2013-01-09 09:36:00,41.1,35.4,29.42,West,268,11.0,20.0,80,0.00,,,0.01,WUHU216DAVISVP2,2013-01-09 14:36:00,
2013-01-09 09:38:00,41.1,35.4,29.41,West,272,12.0,20.0,80,0.00,,,0.01,WUHU216DAVISVP2,2013-01-09 14:38:00,
2013-01-09 09:39:00,41.2,35.5,29.42,West,270,12.0,20.0,80,0.00,,,0.01,WUHU216DAVISVP2,2013-01-09 14:39:00,
2013-01-09 09:41:00,41.2,35.2,29.42,West,280,11.0,20.0,79,0.00,,,0.01,WUHU216DAVISVP2,2013-01-09 14:41:00,
2013-01-09 09:42:00,41.2,35.2,29.42,West,278,8.0,20.0,79,0.00,,,0.01,WUHU216DAVISVP2,2013-01-09 14:42:00,
2013-01-09 09:43:00,41.2,35.2,29.42,WNW,288,11.0,20.0,79,0.00,,,0.01,WUHU216DAVISVP2,2013-01-09 14:43:00,
2013-01-09 09:44:00,41.2,35.2,29.42,West,274,9.0,20.0,79,0.00,,,0.01,WUHU216DAVISVP2,2013-01-09 14:44:00,
2013-01-09 09:46:00,41.3,35.3,29.42,West,267,7.0,20.0,79,0.00,,,0.01,WUHU216DAVISVP2,2013-01-09 14:46:00,
2013-01-09 09:47:00,41.3,35.3,29.42,WSW,256,13.0,20.0,79,0.00,,,0.01,WUHU216DAVISVP2,2013-01-09 14:47:00,
2013-01-09 09:48:00,41.3,35.3,29.42,WSW,256,7.0,19.0,79,0.00,,,0.01,WUHU216DAVISVP2,2013-01-09 14:48:00,
2013-01-09 09:49:00,41.3,35.3,29.42,West,270,10.0,19.0,79,0.00,,,0.01,WUHU216DAVISVP2,2013-01-09 14:49:00,
2013-01-09 09:51:00,41.3,35.3,29.42,WNW,287,9.0,19.0,79,0.00,,,0.01,WUHU216DAVISVP2,2013-01-09 14:51:00,
2013-01-09 09:52:00,41.4,35.4,29.42,WNW,293,9.0,19.0,79,0.00,,,0.01,WUHU216DAVISVP2,2013-01-09 14:52:00,
2013-01-09 09:53:00,41.3,35.3,29.42,West,275,11.0,19.0,79,0.00,,,0.01,WUHU216DAVISVP2,2013-01-09 14:53:00,
2013-01-09 09:54:00,41.4,35.4,29.42,West,262,10.0,19.0,79,0.00,,,0.01,WUHU216DAVISVP2,2013-01-09 14:54:00,
2013-01-09 09:56:00,41.4,35.4,29.42,WNW,287,10.0,19.0,79,0.00,,,0.01,WUHU216DAVISVP2,2013-01-09 14:56:00,
2013-01-09 09:57:00,41.4,35.4,29.42,WSW,256,14.0,18.0,79,0.00,,,0.01,WUHU216DAVISVP2,2013-01-09 14:57:00,
2013-01-09 09:58:00,41.4,35.1,29.42,WSW,246,11.0,21.0,78,0.00,,,0.01,WUHU216DAVISVP2,2013-01-09 14:58:00,
2013-01-09 09:59:00,41.4,35.1,29.42,West,278,13.0,21.0,78,0.00,,,0.01,WUHU216DAVISVP2,2013-01-09 14:59:00,
2013-01-09 10:02:00,41.4,35.1,29.42,West,263,10.0,21.0,78,0.00,,,0.01,WUHU216DAVISVP2,2013-01-09 15:02:00,
2013-01-09 10:04:00,41.5,35.2,29.42,West,270,12.0,21.0,78,0.00,,,0.01,WUHU216DAVISVP2,2013-01-09 15:04:00,
2013-01-09 10:07:00,41.5,35.2,29.42,West,280,9.0,21.0,78,0.00,,,0.01,WUHU216DAVISVP2,2013-01-09 15:07:00,
2013-01-09 10:09:00,41.5,35.2,29.42,NW,306,13.0,21.0,78,0.00,,,0.01,WUHU216DAVISVP2,2013-01-09 15:09:00,
2013-01-09 10:12:00,41.5,35.2,29.43,West,272,9.0,21.0,78,0.00,,,0.01,WUHU216DAVISVP2,2013-01-09 15:12:00,
2013-01-09 10:14:00,41.5,35.2,29.43,WNW,289,11.0,21.0,78,0.00,,,0.01,WUHU216DAVISVP2,2013-01-09 15:14:00,
2013-01-09 10:17:00,41.5,35.2,29.43,WNW,283,8.0,20.0,78,0.00,,,0.01,WUHU216DAVISVP2,2013-01-09 15:17:00,
2013-01-09 10:18:00,41.5,35.2,29.43,West,278,9.0,16.0,78,0.00,,,0.01,WUHU216DAVISVP2,2013-01-09 15:18:00,
2013-01-09 10:19:00,41.6,35.2,29.43,West,274,11.0,16.0,78,0.00,,,0.01,WUHU216DAVISVP2,2013-01-09 15:19:00,
2013-01-09 10:22:00,41.6,35.2,29.43,WNW,291,9.0,16.0,78,0.00,,,0.01,WUHU216DAVISVP2,2013-01-09 15:22:00,
2013-01-09 10:23:00,41.6,35.2,29.43,West,264,12.0,16.0,78,0.00,,,0.01,WUHU216DAVISVP2,2013-01-09 15:23:00,
2013-01-09 10:24:00,41.6,35.2,29.43,West,264,9.0,16.0,78,0.00,,,0.01,WUHU216DAVISVP2,2013-01-09 15:24:00,
2013-01-09 10:25:00,41.6,35.2,29.42,West,259,6.0,16.0,78,0.00,,,0.01,WUHU216DAVISVP2,2013-01-09 15:25:00,
2013-01-09 10:27:00,41.6,35.2,29.43,West,268,11.0,16.0,78,0.00,,,0.01,WUHU216DAVISVP2,2013-01-09 15:27:00,
2013-01-09 10:28:00,41.6,35.2,29.43,WNW,289,7.0,16.0,78,0.00,,,0.01,WUHU216DAVISVP2,2013-01-09 15:28:00,
2013-01-09 10:29:00,41.6,35.2,29.43,West,270,6.0,15.0,78,0.00,,,0.01,WUHU216DAVISVP2,2013-01-09 15:29:00,
2013-01-09 10:30:00,41.6,35.2,29.43,West,277,13.0,15.0,78,0.00,,,0.01,WUHU216DAVISVP2,2013-01-09 15:30:00,
2013-01-09 10:32:00,41.7,35.3,29.43,West,273,12.0,15.0,78,0.00,,,0.01,WUHU216DAVISVP2,2013-01-09 15:32:00,
2013-01-09 10:33:00,41.7,35.0,29.43,West,270,12.0,15.0,77,0.00,,,0.01,WUHU216DAVISVP2,2013-01-09 15:33:00,
2013-01-09 10:34:00,41.7,35.3,29.43,West,266,10.0,15.0,78,0.00,,,0.01,WUHU216DAVISVP2,2013-01-09 15:34:00,
2013-01-09 10:35:00,41.7,35.3,29.43,West,269,13.0,15.0,78,0.00,,,0.01,WUHU216DAVISVP2,2013-01-09 15:35:00,
2013-01-09 10:37:00,41.7,35.0,29.43,West,271,8.0,19.0,77,0.00,,,0.01,WUHU216DAVISVP2,2013-01-09 15:37:00,
2013-01-09 10:38:00,41.7,35.0,29.43,WNW,284,9.0,19.0,77,0.00,,,0.01,WUHU216DAVISVP2,2013-01-09 15:38:00,
2013-01-09 10:40:00,41.8,35.1,29.43,West,262,13.0,19.0,77,0.00,,,0.01,WUHU216DAVISVP2,2013-01-09 15:40:00,
2013-01-09 10:42:00,41.8,35.1,29.44,WNW,295,8.0,19.0,77,0.00,,,0.01,WUHU216DAVISVP2,2013-01-09 15:42:00,
2013-01-09 10:44:00,41.8,35.1,29.44,WNW,288,12.0,19.0,77,0.00,,,0.01,WUHU216DAVISVP2,2013-01-09 15:44:00,
2013-01-09 10:45:00,41.9,35.2,29.43,West,266,11.0,19.0,77,0.00,,,0.01,WUHU216DAVISVP2,2013-01-09 15:45:00,
2013-01-09 10:47:00,42.0,35.3,29.44,WNW,285,11.0,19.0,77,0.00,,,0.01,WUHU216DAVISVP2,2013-01-09 15:47:00,
2013-01-09 10:49:00,42.0,35.0,29.44,WSW,250,9.0,19.0,76,0.00,,,0.01,WUHU216DAVISVP2,2013-01-09 15:49:00,
2013-01-09 10:50:00,42.1,35.4,29.44,WNW,288,6.0,19.0,77,0.00,,,0.01,WUHU216DAVISVP2,2013-01-09 15:50:00,
2013-01-09 10:53:00,42.2,35.2,29.44,West,260,6.0,19.0,76,0.00,,,0.01,WUHU216DAVISVP2,2013-01-09 15:53:00,
2013-01-09 10:54:00,42.2,35.2,29.44,West,268,13.0,19.0,76,0.00,,,0.01,WUHU216DAVISVP2,2013-01-09 15:54:00,
2013-01-09 10:56:00,42.3,35.3,29.44,WNW,287,7.0,19.0,76,0.00,,,0.01,WUHU216DAVISVP2,2013-01-09 15:56:00,
2013-01-09 10:58:00,42.3,35.3,29.44,West,270,13.0,19.0,76,0.00,,,0.01,WUHU216DAVISVP2,2013-01-09 15:58:00,
2013-01-09 10:59:00,42.3,35.3,29.44,West,270,8.0,19.0,76,0.00,,,0.01,WUHU216DAVISVP2,2013-01-09 15:59:00,
2013-01-09 11:01:00,42.3,35.0,29.44,West,279,6.0,16.0,75,0.00,,,0.00,WUHU216DAVISVP2,2013-01-09 16:01:00,
2013-01-09 11:03:00,42.4,35.4,29.44,West,281,8.0,16.0,76,0.00,,,0.00,WUHU216DAVISVP2,2013-01-09 16:03:00,
2013-01-09 11:04:00,42.4,35.4,29.44,West,266,8.0,16.0,76,0.00,,,0.00,WUHU216DAVISVP2,2013-01-09 16:04:00,
2013-01-09 11:06:00,42.4,35.4,29.44,West,281,10.0,15.0,76,0.00,,,0.00,WUHU216DAVISVP2,2013-01-09 16:06:00,
2013-01-09 11:08:00,42.5,35.2,29.44,West,276,5.0,14.0,75,0.00,,,0.00,WUHU216DAVISVP2,2013-01-09 16:08:00,
2013-01-09 11:09:00,42.5,35.2,29.44,WNW,291,6.0,14.0,75,0.00,,,0.00,WUHU216DAVISVP2,2013-01-09 16:09:00,
2013-01-09 11:11:00,42.5,35.2,29.44,West,276,10.0,14.0,75,0.00,,,0.00,WUHU216DAVISVP2,2013-01-09 16:11:00,
2013-01-09 11:13:00,42.4,35.1,29.44,West,274,8.0,19.0,75,0.00,,,0.00,WUHU216DAVISVP2,2013-01-09 16:13:00,
2013-01-09 11:14:00,42.4,35.1,29.44,West,273,10.0,19.0,75,0.00,,,0.00,WUHU216DAVISVP2,2013-01-09 16:14:00,
2013-01-09 11:16:00,42.4,35.1,29.44,WNW,289,9.0,19.0,75,0.00,,,0.00,WUHU216DAVISVP2,2013-01-09 16:16:00,
2013-01-09 11:19:00,42.6,35.3,29.44,WSW,252,8.0,19.0,75,0.00,,,0.00,WUHU216DAVISVP2,2013-01-09 16:19:00,
2013-01-09 11:21:00,42.7,35.4,29.44,WSW,254,16.0,19.0,75,0.00,,,0.00,WUHU216DAVISVP2,2013-01-09 16:21:00,
2013-01-09 11:22:00,42.7,35.4,29.44,West,274,7.0,19.0,75,0.00,,,0.00,WUHU216DAVISVP2,2013-01-09 16:22:00,
2013-01-09 11:24:00,42.8,35.5,29.44,WSW,250,9.0,19.0,75,0.00,,,0.00,WUHU216DAVISVP2,2013-01-09 16:24:00,
2013-01-09 11:25:00,42.8,35.5,29.44,West,269,6.0,19.0,75,0.00,,,0.00,WUHU216DAVISVP2,2013-01-09 16:25:00,
2013-01-09 11:26:00,42.9,35.6,29.44,WSW,256,9.0,19.0,75,0.00,,,0.00,WUHU216DAVISVP2,2013-01-09 16:26:00,
2013-01-09 11:27:00,42.9,35.2,29.43,West,268,9.0,19.0,74,0.00,,,0.00,WUHU216DAVISVP2,2013-01-09 16:27:00,
2013-01-09 11:29:00,42.9,35.2,29.43,West,260,8.0,19.0,74,0.00,,,0.00,WUHU216DAVISVP2,2013-01-09 16:29:00,
2013-01-09 11:30:00,42.9,35.2,29.43,SW,218,8.0,19.0,74,0.00,,,0.00,WUHU216DAVISVP2,2013-01-09 16:30:00,
2013-01-09 11:31:00,42.9,35.2,29.43,West,263,6.0,19.0,74,0.00,,,0.00,WUHU216DAVISVP2,2013-01-09 16:31:00,
2013-01-09 11:32:00,42.9,35.2,29.43,WSW,254,10.0,16.0,74,0.00,,,0.00,WUHU216DAVISVP2,2013-01-09 16:32:00,
2013-01-09 11:34:00,42.8,34.8,29.43,West,271,11.0,16.0,73,0.00,,,0.00,WUHU216DAVISVP2,2013-01-09 16:34:00,
2013-01-09 11:35:00,42.8,34.8,29.44,West,264,7.0,16.0,73,0.00,,,0.00,WUHU216DAVISVP2,2013-01-09 16:35:00,
2013-01-09 11:36:00,42.8,34.8,29.43,West,265,9.0,16.0,73,0.00,,,0.00,WUHU216DAVISVP2,2013-01-09 16:36:00,
2013-01-09 11:37:00,42.8,35.2,29.43,West,279,8.0,16.0,74,0.00,,,0.00,WUHU216DAVISVP2,2013-01-09 16:37:00,
2013-01-09 11:39:00,42.9,35.2,29.43,WSW,258,8.0,16.0,74,0.00,,,0.00,WUHU216DAVISVP2,2013-01-09 16:39:00,
2013-01-09 11:40:00,42.9,35.2,29.44,West,268,9.0,16.0,74,0.00,,,0.00,WUHU216DAVISVP2,2013-01-09 16:40:00,
2013-01-09 11:41:00,42.9,35.2,29.43,WSW,244,12.0,15.0,74,0.00,,,0.00,WUHU216DAVISVP2,2013-01-09 16:41:00,
2013-01-09 11:42:00,42.9,35.2,29.43,WSW,256,8.0,15.0,74,0.00,,,0.00,WUHU216DAVISVP2,2013-01-09 16:42:00,
2013-01-09 11:44:00,42.7,35.1,29.43,West,270,10.0,15.0,74,0.00,,,0.00,WUHU216DAVISVP2,2013-01-09 16:44:00,
2013-01-09 11:45:00,42.7,35.1,29.43,WSW,251,11.0,15.0,74,0.00,,,0.00,WUHU216DAVISVP2,2013-01-09 16:45:00,
2013-01-09 11:46:00,42.7,35.1,29.43,WSW,249,10.0,15.0,74,0.00,,,0.00,WUHU216DAVISVP2,2013-01-09 16:46:00,
2013-01-09 11:47:00,42.7,35.1,29.43,WSW,240,11.0,15.0,74,0.00,,,0.00,WUHU216DAVISVP2,2013-01-09 16:47:00,
2013-01-09 11:49:00,42.8,35.2,29.43,WNW,284,8.0,20.0,74,0.00,,,0.00,WUHU216DAVISVP2,2013-01-09 16:49:00,
2013-01-09 11:50:00,42.7,35.1,29.44,West,263,12.0,20.0,74,0.00,,,0.00,WUHU216DAVISVP2,2013-01-09 16:50:00,
2013-01-09 11:51:00,42.7,35.1,29.44,West,266,9.0,20.0,74,0.00,,,0.00,WUHU216DAVISVP2,2013-01-09 16:51:00,
2013-01-09 11:52:00,42.7,35.1,29.44,West,276,10.0,20.0,74,0.00,,,0.00,WUHU216DAVISVP2,2013-01-09 16:52:00,
2013-01-09 11:54:00,42.7,35.1,29.43,WNW,295,11.0,20.0,74,0.00,,,0.00,WUHU216DAVISVP2,2013-01-09 16:54:00,
2013-01-09 11:55:00,42.7,35.1,29.43,WNW,283,7.0,20.0,74,0.00,,,0.00,WUHU216DAVISVP2,2013-01-09 16:55:00,
2013-01-09 11:56:00,42.7,35.1,29.43,West,270,5.0,20.0,74,0.00,,,0.00,WUHU216DAVISVP2,2013-01-09 16:56:00,
2013-01-09 11:57:00,42.7,35.1,29.43,WSW,247,10.0,20.0,74,0.00,,,0.00,WUHU216DAVISVP2,2013-01-09 16:57:00,
2013-01-09 12:00:00,42.7,35.1,29.43,WSW,244,13.0,20.0,74,0.00,,,0.00,WUHU216DAVISVP2,2013-01-09 17:00:00,
2013-01-09 12:01:00,42.7,35.1,29.43,West,264,8.0,20.0,74,0.00,,,0.00,WUHU216DAVISVP2,2013-01-09 17:01:00,
2013-01-09 12:02:00,42.8,35.2,29.43,WNW,290,7.0,20.0,74,0.00,,,0.00,WUHU216DAVISVP2,2013-01-09 17:02:00,
2013-01-09 12:05:00,42.9,35.2,29.43,West,273,8.0,20.0,74,0.00,,,0.00,WUHU216DAVISVP2,2013-01-09 17:05:00,
2013-01-09 12:06:00,42.9,35.2,29.43,West,266,9.0,20.0,74,0.00,,,0.00,WUHU216DAVISVP2,2013-01-09 17:06:00,
2013-01-09 12:07:00,42.9,35.2,29.43,WSW,258,6.0,14.0,74,0.00,,,0.00,WUHU216DAVISVP2,2013-01-09 17:07:00,
2013-01-09 12:10:00,43.0,35.3,29.43,West,268,14.0,14.0,74,0.00,,,0.00,WUHU216DAVISVP2,2013-01-09 17:10:00,
2013-01-09 12:11:00,43.0,35.0,29.43,West,275,9.0,14.0,73,0.00,,,0.00,WUHU216DAVISVP2,2013-01-09 17:11:00,
2013-01-09 12:13:00,43.0,35.3,29.43,West,260,10.0,14.0,74,0.00,,,0.00,WUHU216DAVISVP2,2013-01-09 17:13:00,
2013-01-09 12:15:00,42.9,35.2,29.43,WSW,247,8.0,14.0,74,0.00,,,0.00,WUHU216DAVISVP2,2013-01-09 17:15:00,
2013-01-09 12:16:00,42.9,35.2,29.43,WNW,284,11.0,15.0,74,0.00,,,0.00,WUHU216DAVISVP2,2013-01-09 17:16:00,
2013-01-09 12:17:00,42.8,35.1,29.43,West,271,9.0,15.0,74,0.00,,,0.00,WUHU216DAVISVP2,2013-01-09 17:17:00,
2013-01-09 12:18:00,42.8,35.1,29.43,WSW,251,9.0,15.0,74,0.00,,,0.00,WUHU216DAVISVP2,2013-01-09 17:18:00,
2013-01-09 12:20:00,42.8,34.7,29.43,West,261,11.0,15.0,73,0.00,,,0.00,WUHU216DAVISVP2,2013-01-09 17:20:00,
2013-01-09 12:21:00,42.8,34.7,29.43,NW,305,13.0,15.0,73,0.00,,,0.00,WUHU216DAVISVP2,2013-01-09 17:21:00,
2013-01-09 12:22:00,42.7,34.6,29.43,WNW,287,9.0,15.0,73,0.00,,,0.00,WUHU216DAVISVP2,2013-01-09 17:22:00,
2013-01-09 12:23:00,42.7,34.6,29.43,WSW,258,9.0,15.0,73,0.00,,,0.00,WUHU216DAVISVP2,2013-01-09 17:23:00,
2013-01-09 12:25:00,42.8,35.1,29.43,WSW,249,10.0,15.0,74,0.00,,,0.00,WUHU216DAVISVP2,2013-01-09 17:25:00,
2013-01-09 12:26:00,42.8,35.1,29.42,West,262,9.0,15.0,74,0.00,,,0.00,WUHU216DAVISVP2,2013-01-09 17:26:00,
2013-01-09 12:27:00,42.9,35.2,29.42,West,270,11.0,15.0,74,0.00,,,0.00,WUHU216DAVISVP2,2013-01-09 17:27:00,
2013-01-09 12:28:00,42.9,35.2,29.42,West,264,11.0,15.0,74,0.00,,,0.00,WUHU216DAVISVP2,2013-01-09 17:28:00,
2013-01-09 12:30:00,42.7,35.0,29.42,West,272,9.0,15.0,74,0.00,,,0.00,WUHU216DAVISVP2,2013-01-09 17:30:00,
2013-01-09 12:31:00,42.7,35.0,29.42,WSW,250,6.0,15.0,74,0.00,,,0.00,WUHU216DAVISVP2,2013-01-09 17:31:00,
2013-01-09 12:32:00,42.7,35.0,29.42,West,264,12.0,15.0,74,0.00,,,0.00,WUHU216DAVISVP2,2013-01-09 17:32:00,
2013-01-09 12:33:00,42.7,35.0,29.42,WSW,257,6.0,15.0,74,0.00,,,0.00,WUHU216DAVISVP2,2013-01-09 17:33:00,
2013-01-09 12:35:00,42.8,35.1,29.42,WSW,249,13.0,15.0,74,0.00,,,0.00,WUHU216DAVISVP2,2013-01-09 17:35:00,
2013-01-09 12:36:00,42.9,35.2,29.42,WSW,258,13.0,15.0,74,0.00,,,0.00,WUHU216DAVISVP2,2013-01-09 17:36:00,
2013-01-09 12:38:00,42.9,34.8,29.42,West,270,12.0,15.0,73,0.00,,,0.00,WUHU216DAVISVP2,2013-01-09 17:38:00,
2013-01-09 12:40:00,42.8,34.7,29.42,West,262,8.0,18.0,73,0.00,,,0.00,WUHU216DAVISVP2,2013-01-09 17:40:00,
2013-01-09 12:41:00,42.7,34.6,29.42,West,276,9.0,19.0,73,0.00,,,0.00,WUHU216DAVISVP2,2013-01-09 17:41:00,
2013-01-09 12:43:00,42.8,35.1,29.42,West,268,13.0,19.0,74,0.00,,,0.00,WUHU216DAVISVP2,2013-01-09 17:43:00,
2013-01-09 12:45:00,42.8,34.7,29.42,WNW,283,9.0,19.0,73,0.00,,,0.00,WUHU216DAVISVP2,2013-01-09 17:45:00,
2013-01-09 12:46:00,42.8,34.7,29.42,West,278,10.0,19.0,73,0.00,,,0.00,WUHU216DAVISVP2,2013-01-09 17:46:00,
2013-01-09 12:48:00,42.9,34.8,29.42,WSW,243,9.0,19.0,73,0.00,,,0.00,WUHU216DAVISVP2,2013-01-09 17:48:00,
2013-01-09 12:49:00,43.0,34.9,29.42,West,277,14.0,19.0,73,0.00,,,0.00,WUHU216DAVISVP2,2013-01-09 17:49:00,
2013-01-09 12:51:00,43.0,34.9,29.42,West,276,9.0,19.0,73,0.00,,,0.00,WUHU216DAVISVP2,2013-01-09 17:51:00,
2013-01-09 12:52:00,43.0,34.9,29.42,West,267,6.0,19.0,73,0.00,,,0.00,WUHU216DAVISVP2,2013-01-09 17:52:00,
2013-01-09 12:53:00,43.1,35.4,29.42,West,274,9.0,19.0,74,0.00,,,0.00,WUHU216DAVISVP2,2013-01-09 17:53:00,
2013-01-09 12:54:00,43.2,35.1,29.42,WNW,299,10.0,19.0,73,0.00,,,0.00,WUHU216DAVISVP2,2013-01-09 17:54:00,
2013-01-09 12:56:00,43.3,35.2,29.42,West,259,11.0,19.0,73,0.00,,,0.00,WUHU216DAVISVP2,2013-01-09 17:56:00,
2013-01-09 12:57:00,43.3,34.9,29.43,West,264,12.0,19.0,72,0.00,,,0.00,WUHU216DAVISVP2,2013-01-09 17:57:00,
2013-01-09 12:58:00,43.3,34.9,29.43,West,274,8.0,19.0,72,0.00,,,0.00,WUHU216DAVISVP2,2013-01-09 17:58:00,
2013-01-09 13:00:00,43.4,35.0,29.42,West,266,8.0,16.0,72,0.00,,,0.00,WUHU216DAVISVP2,2013-01-09 18:00:00,
2013-01-09 13:01:00,43.5,35.1,29.42,WSW,254,11.0,16.0,72,0.00,,,0.00,WUHU216DAVISVP2,2013-01-09 18:01:00,
2013-01-09 13:02:00,43.6,35.2,29.42,WSW,254,9.0,16.0,72,0.00,,,0.00,WUHU216DAVISVP2,2013-01-09 18:02:00,
2013-01-09 13:03:00,43.7,35.3,29.42,WSW,253,7.0,16.0,72,0.00,,,0.00,WUHU216DAVISVP2,2013-01-09 18:03:00,
2013-01-09 13:05:00,43.7,35.3,29.42,WSW,258,14.0,16.0,72,0.00,,,0.00,WUHU216DAVISVP2,2013-01-09 18:05:00,
2013-01-09 13:06:00,43.6,34.8,29.42,WSW,258,6.0,16.0,71,0.00,,,0.00,WUHU216DAVISVP2,2013-01-09 18:06:00,
2013-01-09 13:07:00,43.7,35.3,29.42,West,279,10.0,16.0,72,0.00,,,0.00,WUHU216DAVISVP2,2013-01-09 18:07:00,
2013-01-09 13:08:00,43.7,35.3,29.42,West,264,8.0,16.0,72,0.00,,,0.00,WUHU216DAVISVP2,2013-01-09 18:08:00,
2013-01-09 13:10:00,43.7,35.3,29.42,West,261,9.0,16.0,72,0.00,,,0.00,WUHU216DAVISVP2,2013-01-09 18:10:00,
2013-01-09 13:11:00,43.7,34.9,29.42,WSW,241,10.0,16.0,71,0.00,,,0.00,WUHU216DAVISVP2,2013-01-09 18:11:00,
2013-01-09 13:12:00,43.7,34.9,29.42,West,265,13.0,16.0,71,0.00,,,0.00,WUHU216DAVISVP2,2013-01-09 18:12:00,
2013-01-09 13:13:00,43.7,34.9,29.42,WSW,256,11.0,16.0,71,0.00,,,0.00,WUHU216DAVISVP2,2013-01-09 18:13:00,
2013-01-09 13:15:00,43.7,34.9,29.43,WSW,250,6.0,16.0,71,0.00,,,0.00,WUHU216DAVISVP2,2013-01-09 18:15:00,
2013-01-09 13:16:00,43.7,34.9,29.43,West,262,12.0,16.0,71,0.00,,,0.00,WUHU216DAVISVP2,2013-01-09 18:16:00,
2013-01-09 13:18:00,43.7,34.9,29.43,WSW,244,8.0,16.0,71,0.00,,,0.00,WUHU216DAVISVP2,2013-01-09 18:18:00,
2013-01-09 13:20:00,43.6,34.8,29.42,WNW,289,12.0,19.0,71,0.00,,,0.00,WUHU216DAVISVP2,2013-01-09 18:20:00,
2013-01-09 13:21:00,43.6,34.8,29.42,West,271,11.0,19.0,71,0.00,,,0.00,WUHU216DAVISVP2,2013-01-09 18:21:00,
2013-01-09 13:23:00,43.6,34.8,29.42,West,274,13.0,19.0,71,0.00,,,0.00,WUHU216DAVISVP2,2013-01-09 18:23:00,
2013-01-09 13:25:00,43.7,34.9,29.43,WSW,254,11.0,19.0,71,0.00,,,0.00,WUHU216DAVISVP2,2013-01-09 18:25:00,
2013-01-09 13:26:00,43.7,35.0,29.43,West,260,7.0,19.0,71,0.00,,,0.00,WUHU216DAVISVP2,2013-01-09 18:26:00,
2013-01-09 13:28:00,43.8,35.1,29.43,West,273,12.0,19.0,71,0.00,,,0.00,WUHU216DAVISVP2,2013-01-09 18:28:00,
2013-01-09 13:29:00,43.8,35.1,29.43,West,262,8.0,19.0,71,0.00,,,0.00,WUHU216DAVISVP2,2013-01-09 18:29:00,
2013-01-09 13:30:00,43.8,35.1,29.43,West,260,15.0,19.0,71,0.00,,,0.00,WUHU216DAVISVP2,2013-01-09 18:30:00,
2013-01-09 13:31:00,43.8,35.1,29.43,West,272,11.0,19.0,71,0.00,,,0.00,WUHU216DAVISVP2,2013-01-09 18:31:00,
2013-01-09 13:33:00,43.9,35.5,29.43,WSW,249,12.0,19.0,72,0.00,,,0.00,WUHU216DAVISVP2,2013-01-09 18:33:00,
2013-01-09 13:34:00,43.9,35.2,29.43,West,269,13.0,19.0,71,0.00,,,0.00,WUHU216DAVISVP2,2013-01-09 18:34:00,
2013-01-09 13:36:00,44.0,35.3,29.43,West,272,8.0,19.0,71,0.00,,,0.00,WUHU216DAVISVP2,2013-01-09 18:36:00,
2013-01-09 13:37:00,44.0,35.3,29.43,West,266,8.0,19.0,71,0.00,,,0.00,WUHU216DAVISVP2,2013-01-09 18:37:00,
2013-01-09 13:38:00,44.1,35.7,29.43,WSW,252,10.0,19.0,72,0.00,,,0.00,WUHU216DAVISVP2,2013-01-09 18:38:00,
2013-01-09 13:39:00,44.2,35.8,29.43,WSW,254,9.0,19.0,72,0.00,,,0.00,WUHU216DAVISVP2,2013-01-09 18:39:00,
2013-01-09 13:41:00,44.2,35.5,29.43,SW,232,5.0,19.0,71,0.00,,,0.00,WUHU216DAVISVP2,2013-01-09 18:41:00,
2013-01-09 13:42:00,44.3,35.6,29.43,West,274,6.0,19.0,71,0.00,,,0.00,WUHU216DAVISVP2,2013-01-09 18:42:00,
2013-01-09 13:44:00,44.2,35.5,29.43,WSW,243,11.0,16.0,71,0.00,,,0.00,WUHU216DAVISVP2,2013-01-09 18:44:00,
2013-01-09 13:48:00,44.3,35.6,29.43,West,265,11.0,18.0,71,0.00,,,0.00,WUHU216DAVISVP2,2013-01-09 18:48:00,
2013-01-09 13:53:00,44.3,35.6,29.43,WNW,291,7.0,18.0,71,0.00,,,0.00,WUHU216DAVISVP2,2013-01-09 18:53:00,
2013-01-09 13:58:00,44.3,35.1,29.44,WNW,290,8.0,20.0,70,0.00,,,0.00,WUHU216DAVISVP2,2013-01-09 18:58:00,
2013-01-09 13:59:00,44.4,35.2,29.44,West,261,12.0,20.0,70,0.00,,,0.00,WUHU216DAVISVP2,2013-01-09 18:59:00,
2013-01-09 14:03:00,44.5,35.0,29.45,WNW,303,10.0,20.0,69,0.00,,,0.00,WUHU216DAVISVP2,2013-01-09 19:03:00,
2013-01-09 14:04:00,44.5,35.0,29.45,West,280,12.0,20.0,69,0.00,,,0.00,WUHU216DAVISVP2,2013-01-09 19:04:00,
2013-01-09 14:08:00,44.7,35.1,29.45,West,277,12.0,20.0,69,0.00,,,0.00,WUHU216DAVISVP2,2013-01-09 19:08:00,
2013-01-09 14:09:00,44.7,35.1,29.45,West,265,14.0,20.0,69,0.00,,,0.00,WUHU216DAVISVP2,2013-01-09 19:09:00,
2013-01-09 14:13:00,45.0,35.1,29.44,West,264,9.0,20.0,68,0.00,,,0.00,WUHU216DAVISVP2,2013-01-09 19:13:00,
2013-01-09 14:14:00,45.0,35.1,29.44,West,266,9.0,18.0,68,0.00,,,0.00,WUHU216DAVISVP2,2013-01-09 19:14:00,
2013-01-09 14:15:00,45.1,35.2,29.44,West,264,13.0,18.0,68,0.00,,,0.00,WUHU216DAVISVP2,2013-01-09 19:15:00,
2013-01-09 14:19:00,45.1,35.2,29.44,WSW,258,15.0,18.0,68,0.00,,,0.00,WUHU216DAVISVP2,2013-01-09 19:19:00,
2013-01-09 14:20:00,45.1,35.2,29.44,West,270,11.0,18.0,68,0.00,,,0.00,WUHU216DAVISVP2,2013-01-09 19:20:00,
2013-01-09 14:24:00,45.3,35.7,29.44,West,259,6.0,18.0,69,0.00,,,0.00,WUHU216DAVISVP2,2013-01-09 19:24:00,
2013-01-09 14:25:00,45.4,35.8,29.45,West,272,8.0,18.0,69,0.00,,,0.00,WUHU216DAVISVP2,2013-01-09 19:25:00,
2013-01-09 14:29:00,45.5,35.2,29.44,West,270,16.0,18.0,67,0.00,,,0.00,WUHU216DAVISVP2,2013-01-09 19:29:00,
2013-01-09 14:30:00,45.5,34.8,29.44,West,280,9.0,18.0,66,0.00,,,0.00,WUHU216DAVISVP2,2013-01-09 19:30:00,
2013-01-09 14:31:00,45.5,34.8,29.44,West,277,12.0,18.0,66,0.00,,,0.00,WUHU216DAVISVP2,2013-01-09 19:31:00,
2013-01-09 14:34:00,45.6,34.9,29.44,West,276,7.0,18.0,66,0.00,,,0.00,WUHU216DAVISVP2,2013-01-09 19:34:00,
2013-01-09 14:35:00,45.6,34.9,29.44,WNW,289,10.0,18.0,66,0.00,,,0.00,WUHU216DAVISVP2,2013-01-09 19:35:00,
2013-01-09 14:36:00,45.7,35.0,29.45,West,276,11.0,18.0,66,0.00,,,0.00,WUHU216DAVISVP2,2013-01-09 19:36:00,
2013-01-09 14:40:00,45.9,35.2,29.45,West,260,12.0,18.0,66,0.00,,,0.00,WUHU216DAVISVP2,2013-01-09 19:40:00,
2013-01-09 14:41:00,45.9,34.8,29.45,WNW,289,12.0,18.0,65,0.00,,,0.00,WUHU216DAVISVP2,2013-01-09 19:41:00,
2013-01-09 14:45:00,46.0,34.9,29.45,WNW,290,8.0,18.0,65,0.00,,,0.00,WUHU216DAVISVP2,2013-01-09 19:45:00,
2013-01-09 14:46:00,46.0,34.9,29.45,West,280,6.0,18.0,65,0.00,,,0.00,WUHU216DAVISVP2,2013-01-09 19:46:00,
2013-01-09 14:50:00,46.3,35.2,29.45,West,279,9.0,16.0,65,0.00,,,0.00,WUHU216DAVISVP2,2013-01-09 19:50:00,
2013-01-09 14:52:00,46.3,34.8,29.45,WNW,288,15.0,16.0,64,0.00,,,0.00,WUHU216DAVISVP2,2013-01-09 19:52:00,
2013-01-09 14:55:00,46.4,34.9,29.46,West,273,7.0,16.0,64,0.00,,,0.00,WUHU216DAVISVP2,2013-01-09 19:55:00,
2013-01-09 14:56:00,46.4,34.5,29.46,West,281,14.0,16.0,63,0.00,,,0.00,WUHU216DAVISVP2,2013-01-09 19:56:00,
2013-01-09 14:57:00,46.4,34.1,29.46,West,272,7.0,16.0,62,0.00,,,0.00,WUHU216DAVISVP2,2013-01-09 19:57:00,
2013-01-09 15:00:00,46.5,34.6,29.46,West,279,6.0,16.0,63,0.00,,,0.00,WUHU216DAVISVP2,2013-01-09 20:00:00,
2013-01-09 15:01:00,46.5,34.6,29.46,West,273,10.0,16.0,63,0.00,,,0.00,WUHU216DAVISVP2,2013-01-09 20:01:00,
2013-01-09 15:02:00,46.6,34.4,29.47,WNW,303,13.0,16.0,62,0.00,,,0.00,WUHU216DAVISVP2,2013-01-09 20:02:00,
2013-01-09 15:06:00,46.7,34.0,29.47,WNW,290,7.0,16.0,61,0.00,,,0.00,WUHU216DAVISVP2,2013-01-09 20:06:00,
2013-01-09 15:07:00,46.7,34.5,29.47,WNW,299,11.0,16.0,62,0.00,,,0.00,WUHU216DAVISVP2,2013-01-09 20:07:00,
2013-01-09 15:11:00,46.8,34.6,29.47,West,280,7.0,16.0,62,0.00,,,0.00,WUHU216DAVISVP2,2013-01-09 20:11:00,
2013-01-09 15:12:00,46.8,34.6,29.47,WNW,298,5.0,16.0,62,0.00,,,0.00,WUHU216DAVISVP2,2013-01-09 20:12:00,
2013-01-09 15:16:00,46.7,33.6,29.47,WNW,292,10.0,18.0,60,0.00,,,0.00,WUHU216DAVISVP2,2013-01-09 20:16:00,
2013-01-09 15:17:00,46.7,33.6,29.47,WNW,301,10.0,18.0,60,0.00,,,0.00,WUHU216DAVISVP2,2013-01-09 20:17:00,
2013-01-09 15:21:00,46.5,33.9,29.48,WNW,291,7.0,18.0,61,0.00,,,0.00,WUHU216DAVISVP2,2013-01-09 20:21:00,
2013-01-09 15:22:00,46.5,33.9,29.48,West,278,8.0,18.0,61,0.00,,,0.00,WUHU216DAVISVP2,2013-01-09 20:22:00,
2013-01-09 15:26:00,46.5,33.4,29.48,WNW,302,11.0,20.0,60,0.00,,,0.00,WUHU216DAVISVP2,2013-01-09 20:26:00,
2013-01-09 15:27:00,46.5,33.4,29.48,NW,312,9.0,20.0,60,0.00,,,0.00,WUHU216DAVISVP2,2013-01-09 20:27:00,
2013-01-09 15:32:00,46.3,33.7,29.48,West,276,9.0,20.0,61,0.00,,,0.00,WUHU216DAVISVP2,2013-01-09 20:32:00,
2013-01-09 15:37:00,46.4,33.8,29.48,WNW,293,9.0,20.0,61,0.00,,,0.00,WUHU216DAVISVP2,2013-01-09 20:37:00,
2013-01-09 15:38:00,46.4,34.2,29.48,WNW,295,10.0,20.0,62,0.00,,,0.00,WUHU216DAVISVP2,2013-01-09 20:38:00,
2013-01-09 15:42:00,46.2,33.6,29.48,WNW,302,12.0,20.0,61,0.00,,,0.00,WUHU216DAVISVP2,2013-01-09 20:42:00,
2013-01-09 15:43:00,46.2,33.6,29.49,WNW,298,7.0,20.0,61,0.00,,,0.00,WUHU216DAVISVP2,2013-01-09 20:43:00,
2013-01-09 15:47:00,46.1,34.3,29.49,West,274,14.0,19.0,63,0.00,,,0.00,WUHU216DAVISVP2,2013-01-09 20:47:00,
2013-01-09 15:48:00,46.2,34.4,29.49,WNW,291,10.0,19.0,63,0.00,,,0.00,WUHU216DAVISVP2,2013-01-09 20:48:00,
2013-01-09 15:52:00,46.2,34.0,29.49,WNW,292,18.0,19.0,62,0.00,,,0.00,WUHU216DAVISVP2,2013-01-09 20:52:00,
2013-01-09 15:53:00,46.2,33.9,29.49,WNW,287,14.0,19.0,62,0.00,,,0.00,WUHU216DAVISVP2,2013-01-09 20:53:00,
2013-01-09 15:57:00,46.0,33.7,29.49,WNW,303,9.0,19.0,62,0.00,,,0.00,WUHU216DAVISVP2,2013-01-09 20:57:00,
2013-01-09 15:58:00,46.0,33.7,29.49,NW,305,12.0,19.0,62,0.00,,,0.00,WUHU216DAVISVP2,2013-01-09 20:58:00,
2013-01-09 16:02:00,45.9,34.0,29.49,WNW,289,11.0,19.0,63,0.00,,,0.00,WUHU216DAVISVP2,2013-01-09 21:02:00,
2013-01-09 16:03:00,45.9,34.4,29.49,WNW,287,11.0,19.0,64,0.00,,,0.00,WUHU216DAVISVP2,2013-01-09 21:03:00,
2013-01-09 16:07:00,45.9,34.5,29.50,West,280,9.0,19.0,64,0.00,,,0.00,WUHU216DAVISVP2,2013-01-09 21:07:00,
2013-01-09 16:08:00,45.9,34.5,29.50,West,280,8.0,19.0,64,0.00,,,0.00,WUHU216DAVISVP2,2013-01-09 21:08:00,
2013-01-09 16:12:00,45.9,34.5,29.50,West,278,9.0,19.0,64,0.00,,,0.00,WUHU216DAVISVP2,2013-01-09 21:12:00,
2013-01-09 16:13:00,45.9,34.5,29.50,NW,305,7.0,19.0,64,0.00,,,0.00,WUHU216DAVISVP2,2013-01-09 21:13:00,
2013-01-09 16:17:00,45.8,34.3,29.50,WNW,285,9.0,19.0,64,0.00,,,0.00,WUHU216DAVISVP2,2013-01-09 21:17:00,
2013-01-09 16:18:00,45.8,34.3,29.50,WNW,295,9.0,19.0,64,0.00,,,0.00,WUHU216DAVISVP2,2013-01-09 21:18:00,
2013-01-09 16:22:00,45.8,34.3,29.50,NW,305,9.0,16.0,64,0.00,,,0.00,WUHU216DAVISVP2,2013-01-09 21:22:00,
2013-01-09 16:23:00,45.8,34.3,29.50,WNW,295,10.0,16.0,64,0.00,,,0.00,WUHU216DAVISVP2,2013-01-09 21:23:00,
2013-01-09 16:24:00,45.8,34.3,29.50,WNW,302,9.0,16.0,64,0.00,,,0.00,WUHU216DAVISVP2,2013-01-09 21:24:00,
2013-01-09 16:28:00,45.8,34.4,29.50,WNW,285,9.0,16.0,64,0.00,,,0.00,WUHU216DAVISVP2,2013-01-09 21:28:00,
2013-01-09 16:29:00,45.8,34.4,29.50,West,277,13.0,16.0,64,0.00,,,0.00,WUHU216DAVISVP2,2013-01-09 21:29:00,
2013-01-09 16:33:00,45.8,34.8,29.50,WNW,285,8.0,16.0,65,0.00,,,0.00,WUHU216DAVISVP2,2013-01-09 21:33:00,
2013-01-09 16:34:00,45.8,34.4,29.50,WNW,283,11.0,16.0,64,0.00,,,0.00,WUHU216DAVISVP2,2013-01-09 21:34:00,
2013-01-09 16:38:00,45.9,34.5,29.50,WNW,287,7.0,19.0,64,0.00,,,0.00,WUHU216DAVISVP2,2013-01-09 21:38:00,
2013-01-09 16:39:00,45.9,34.5,29.50,WNW,289,13.0,19.0,64,0.00,,,0.00,WUHU216DAVISVP2,2013-01-09 21:39:00,
2013-01-09 16:43:00,45.9,34.5,29.50,WNW,285,8.0,19.0,64,0.00,,,0.00,WUHU216DAVISVP2,2013-01-09 21:43:00,
2013-01-09 16:44:00,45.9,34.5,29.50,WNW,283,9.0,19.0,64,0.00,,,0.00,WUHU216DAVISVP2,2013-01-09 21:44:00,
2013-01-09 16:48:00,45.8,34.4,29.50,WNW,284,8.0,19.0,64,0.00,,,0.00,WUHU216DAVISVP2,2013-01-09 21:48:00,
2013-01-09 16:49:00,45.8,34.4,29.50,West,272,5.0,19.0,64,0.00,,,0.00,WUHU216DAVISVP2,2013-01-09 21:49:00,
2013-01-09 16:53:00,45.8,34.0,29.51,West,280,10.0,19.0,63,0.00,,,0.00,WUHU216DAVISVP2,2013-01-09 21:53:00,
2013-01-09 16:54:00,45.8,34.0,29.51,West,274,12.0,18.0,63,0.00,,,0.00,WUHU216DAVISVP2,2013-01-09 21:54:00,
2013-01-09 16:58:00,45.8,34.0,29.51,WNW,293,6.0,16.0,63,0.00,,,0.00,WUHU216DAVISVP2,2013-01-09 21:58:00,
2013-01-09 16:59:00,45.7,33.9,29.51,WNW,299,5.0,16.0,63,0.00,,,0.00,WUHU216DAVISVP2,2013-01-09 21:59:00,
2013-01-09 17:00:00,45.7,33.9,29.51,West,280,8.0,16.0,63,0.00,,,0.00,WUHU216DAVISVP2,2013-01-09 22:00:00,
2013-01-09 17:04:00,45.6,34.2,29.51,West,266,8.0,16.0,64,0.00,,,0.00,WUHU216DAVISVP2,2013-01-09 22:04:00,
2013-01-09 17:05:00,45.6,33.8,29.51,West,280,11.0,16.0,63,0.00,,,0.00,WUHU216DAVISVP2,2013-01-09 22:05:00,
2013-01-09 17:09:00,45.4,34.0,29.51,West,280,9.0,16.0,64,0.00,,,0.00,WUHU216DAVISVP2,2013-01-09 22:09:00,
2013-01-09 17:10:00,45.4,34.0,29.51,WNW,292,8.0,16.0,64,0.00,,,0.00,WUHU216DAVISVP2,2013-01-09 22:10:00,
2013-01-09 17:14:00,45.3,33.9,29.52,West,268,7.0,15.0,64,0.00,,,0.00,WUHU216DAVISVP2,2013-01-09 22:14:00,
2013-01-09 17:15:00,45.3,33.9,29.52,NW,305,11.0,15.0,64,0.00,,,0.00,WUHU216DAVISVP2,2013-01-09 22:15:00,
2013-01-09 17:19:00,45.0,34.0,29.52,WNW,284,9.0,15.0,65,0.00,,,0.00,WUHU216DAVISVP2,2013-01-09 22:19:00,
2013-01-09 17:20:00,45.0,34.0,29.52,West,266,7.0,15.0,65,0.00,,,0.00,WUHU216DAVISVP2,2013-01-09 22:20:00,
2013-01-09 17:25:00,44.7,34.1,29.52,WNW,289,9.0,15.0,66,0.00,,,0.00,WUHU216DAVISVP2,2013-01-09 22:25:00,
2013-01-09 17:26:00,44.7,34.1,29.52,West,277,5.0,15.0,66,0.00,,,0.00,WUHU216DAVISVP2,2013-01-09 22:26:00,
2013-01-09 17:30:00,44.5,34.3,29.52,WNW,288,6.0,15.0,67,0.00,,,0.00,WUHU216DAVISVP2,2013-01-09 22:30:00,
2013-01-09 17:31:00,44.5,34.3,29.52,WNW,289,7.0,15.0,67,0.00,,,0.00,WUHU216DAVISVP2,2013-01-09 22:31:00,
2013-01-09 17:35:00,44.2,34.4,29.52,WSW,256,7.0,15.0,68,0.00,,,0.00,WUHU216DAVISVP2,2013-01-09 22:35:00,
2013-01-09 17:36:00,44.2,34.8,29.52,West,260,7.0,14.0,69,0.00,,,0.00,WUHU216DAVISVP2,2013-01-09 22:36:00,
2013-01-09 17:40:00,43.9,35.2,29.52,West,260,8.0,12.0,71,0.00,,,0.00,WUHU216DAVISVP2,2013-01-09 22:40:00,
2013-01-09 17:41:00,43.8,35.1,29.52,West,265,7.0,11.0,71,0.00,,,0.00,WUHU216DAVISVP2,2013-01-09 22:41:00,
2013-01-09 17:45:00,43.6,35.2,29.52,West,281,7.0,11.0,72,0.00,,,0.00,WUHU216DAVISVP2,2013-01-09 22:45:00,
2013-01-09 17:46:00,43.6,35.2,29.52,West,262,6.0,11.0,72,0.00,,,0.00,WUHU216DAVISVP2,2013-01-09 22:46:00,
2013-01-09 17:50:00,43.3,35.6,29.52,West,270,4.0,11.0,74,0.00,,,0.00,WUHU216DAVISVP2,2013-01-09 22:50:00,
2013-01-09 17:51:00,43.3,35.6,29.52,WSW,258,9.0,11.0,74,0.00,,,0.00,WUHU216DAVISVP2,2013-01-09 22:51:00,
2013-01-09 17:55:00,43.1,35.8,29.52,West,266,7.0,11.0,75,0.00,,,0.00,WUHU216DAVISVP2,2013-01-09 22:55:00,
2013-01-09 17:56:00,43.1,35.8,29.52,West,266,6.0,11.0,75,0.00,,,0.00,WUHU216DAVISVP2,2013-01-09 22:56:00,
2013-01-09 18:00:00,42.9,35.6,29.53,West,276,8.0,10.0,75,0.00,,,0.00,WUHU216DAVISVP2,2013-01-09 23:00:00,
2013-01-09 18:01:00,42.9,35.6,29.53,WSW,258,9.0,10.0,75,0.00,,,0.00,WUHU216DAVISVP2,2013-01-09 23:01:00,
2013-01-09 18:06:00,42.8,35.8,29.53,West,264,12.0,12.0,76,0.00,,,0.00,WUHU216DAVISVP2,2013-01-09 23:06:00,
2013-01-09 18:07:00,42.8,35.8,29.53,WNW,290,5.0,12.0,76,0.00,,,0.00,WUHU216DAVISVP2,2013-01-09 23:07:00,
2013-01-09 18:11:00,42.8,35.8,29.53,West,274,7.0,12.0,76,0.00,,,0.00,WUHU216DAVISVP2,2013-01-09 23:11:00,
2013-01-09 18:12:00,42.8,35.8,29.53,West,275,11.0,12.0,76,0.00,,,0.00,WUHU216DAVISVP2,2013-01-09 23:12:00,
2013-01-09 18:16:00,42.7,36.0,29.54,West,268,10.0,14.0,77,0.00,,,0.00,WUHU216DAVISVP2,2013-01-09 23:16:00,
2013-01-09 18:17:00,42.7,36.0,29.54,West,279,12.0,14.0,77,0.00,,,0.00,WUHU216DAVISVP2,2013-01-09 23:17:00,
2013-01-09 18:21:00,42.5,35.8,29.54,WSW,251,9.0,14.0,77,0.00,,,0.00,WUHU216DAVISVP2,2013-01-09 23:21:00,
2013-01-09 18:22:00,42.5,35.8,29.54,WSW,251,9.0,14.0,77,0.00,,,0.00,WUHU216DAVISVP2,2013-01-09 23:22:00,
2013-01-09 18:27:00,42.3,35.6,29.54,West,276,10.0,14.0,77,0.00,,,0.00,WUHU216DAVISVP2,2013-01-09 23:27:00,
2013-01-09 18:28:00,42.3,35.6,29.54,West,281,5.0,14.0,77,0.00,,,0.00,WUHU216DAVISVP2,2013-01-09 23:28:00,
2013-01-09 18:32:00,42.2,35.8,29.55,West,266,5.0,13.0,78,0.00,,,0.00,WUHU216DAVISVP2,2013-01-09 23:32:00,
2013-01-09 18:33:00,42.2,35.8,29.55,West,276,9.0,13.0,78,0.00,,,0.00,WUHU216DAVISVP2,2013-01-09 23:33:00,
2013-01-09 18:37:00,42.0,35.6,29.55,WNW,292,7.0,13.0,78,0.00,,,0.00,WUHU216DAVISVP2,2013-01-09 23:37:00,
2013-01-09 18:38:00,42.0,35.6,29.55,West,272,6.0,13.0,78,0.00,,,0.00,WUHU216DAVISVP2,2013-01-09 23:38:00,
2013-01-09 18:42:00,42.0,35.6,29.55,WNW,284,7.0,13.0,78,0.00,,,0.00,WUHU216DAVISVP2,2013-01-09 23:42:00,
2013-01-09 18:43:00,41.9,35.5,29.55,West,264,7.0,13.0,78,0.00,,,0.00,WUHU216DAVISVP2,2013-01-09 23:43:00,
2013-01-09 18:47:00,41.9,35.2,29.55,West,274,5.0,13.0,77,0.00,,,0.00,WUHU216DAVISVP2,2013-01-09 23:47:00,
2013-01-09 18:48:00,41.9,35.2,29.56,WNW,285,7.0,13.0,77,0.00,,,0.00,WUHU216DAVISVP2,2013-01-09 23:48:00,
2013-01-09 18:52:00,41.9,35.2,29.56,WNW,283,7.0,13.0,77,0.00,,,0.00,WUHU216DAVISVP2,2013-01-09 23:52:00,
2013-01-09 18:53:00,41.8,35.1,29.56,WNW,284,7.0,13.0,77,0.00,,,0.00,WUHU216DAVISVP2,2013-01-09 23:53:00,
2013-01-09 18:57:00,41.8,35.2,29.56,West,280,6.0,13.0,77,0.00,,,0.00,WUHU216DAVISVP2,2013-01-09 23:57:00,
2013-01-09 18:58:00,41.8,35.2,29.56,WNW,288,6.0,13.0,77,0.00,,,0.00,WUHU216DAVISVP2,2013-01-09 23:58:00,
2013-01-09 19:02:00,41.7,34.7,29.56,West,276,5.0,13.0,76,0.00,,,0.00,WUHU216DAVISVP2,2013-01-10 00:02:00,
2013-01-09 19:03:00,41.7,34.7,29.56,West,280,6.0,13.0,76,0.00,,,0.00,WUHU216DAVISVP2,2013-01-10 00:03:00,
2013-01-09 19:08:00,41.6,34.6,29.56,WNW,286,7.0,13.0,76,0.00,,,0.00,WUHU216DAVISVP2,2013-01-10 00:08:00,
2013-01-09 19:13:00,41.5,34.2,29.56,WNW,290,8.0,10.0,75,0.00,,,0.00,WUHU216DAVISVP2,2013-01-10 00:13:00,
2013-01-09 19:14:00,41.5,34.2,29.56,NW,306,7.0,10.0,75,0.00,,,0.00,WUHU216DAVISVP2,2013-01-10 00:14:00,
2013-01-09 19:18:00,41.6,34.0,29.56,WNW,288,7.0,10.0,74,0.00,,,0.00,WUHU216DAVISVP2,2013-01-10 00:18:00,
2013-01-09 19:19:00,41.6,34.0,29.56,West,270,8.0,10.0,74,0.00,,,0.00,WUHU216DAVISVP2,2013-01-10 00:19:00,
2013-01-09 19:23:00,41.5,33.6,29.56,West,281,7.0,10.0,73,0.00,,,0.00,WUHU216DAVISVP2,2013-01-10 00:23:00,
2013-01-09 19:24:00,41.5,33.6,29.56,WNW,289,7.0,10.0,73,0.00,,,0.00,WUHU216DAVISVP2,2013-01-10 00:24:00,
2013-01-09 19:28:00,41.3,33.4,29.56,WNW,285,6.0,11.0,73,0.00,,,0.00,WUHU216DAVISVP2,2013-01-10 00:28:00,
2013-01-09 19:29:00,41.3,33.4,29.56,WNW,286,6.0,11.0,73,0.00,,,0.00,WUHU216DAVISVP2,2013-01-10 00:29:00,
2013-01-09 19:33:00,41.1,33.5,29.56,WNW,289,5.0,11.0,74,0.00,,,0.00,WUHU216DAVISVP2,2013-01-10 00:33:00,
2013-01-09 19:34:00,41.1,33.5,29.56,West,270,7.0,11.0,74,0.00,,,0.00,WUHU216DAVISVP2,2013-01-10 00:34:00,
2013-01-09 19:38:00,41.0,33.4,29.56,West,281,6.0,11.0,74,0.00,,,0.00,WUHU216DAVISVP2,2013-01-10 00:38:00,
2013-01-09 19:39:00,40.9,33.3,29.56,West,273,5.0,11.0,74,0.00,,,0.00,WUHU216DAVISVP2,2013-01-10 00:39:00,
2013-01-09 19:43:00,40.7,33.4,29.56,West,269,6.0,11.0,75,0.00,,,0.00,WUHU216DAVISVP2,2013-01-10 00:43:00,
2013-01-09 19:44:00,40.6,33.4,29.56,West,270,4.0,10.0,75,0.00,,,0.00,WUHU216DAVISVP2,2013-01-10 00:44:00,
2013-01-09 19:48:00,40.4,33.5,29.56,West,270,5.0,10.0,76,0.00,,,0.00,WUHU216DAVISVP2,2013-01-10 00:48:00,
2013-01-09 19:49:00,40.4,33.5,29.56,West,270,5.0,10.0,76,0.00,,,0.00,WUHU216DAVISVP2,2013-01-10 00:49:00,
2013-01-09 19:53:00,40.2,33.3,29.56,West,269,5.0,10.0,76,0.00,,,0.00,WUHU216DAVISVP2,2013-01-10 00:53:00,
2013-01-09 19:54:00,40.2,33.3,29.56,West,269,5.0,10.0,76,0.00,,,0.00,WUHU216DAVISVP2,2013-01-10 00:54:00,
2013-01-09 19:55:00,40.2,33.6,29.56,West,266,5.0,9.0,77,0.00,,,0.00,WUHU216DAVISVP2,2013-01-10 00:55:00,
2013-01-09 19:58:00,40.0,33.4,29.56,West,268,6.0,8.0,77,0.00,,,0.00,WUHU216DAVISVP2,2013-01-10 00:58:00,
2013-01-09 19:59:00,40.0,33.4,29.56,West,268,4.0,8.0,77,0.00,,,0.00,WUHU216DAVISVP2,2013-01-10 00:59:00,
2013-01-09 20:00:00,40.0,33.4,29.56,West,271,5.0,8.0,77,0.00,,,0.00,WUHU216DAVISVP2,2013-01-10 01:00:00,
2013-01-09 20:03:00,39.9,33.3,29.56,West,280,5.0,9.0,77,0.00,,,0.00,WUHU216DAVISVP2,2013-01-10 01:03:00,
2013-01-09 20:04:00,39.9,33.3,29.56,West,279,9.0,9.0,77,0.00,,,0.00,WUHU216DAVISVP2,2013-01-10 01:04:00,
2013-01-09 20:05:00,39.9,33.0,29.56,WNW,289,5.0,9.0,76,0.00,,,0.00,WUHU216DAVISVP2,2013-01-10 01:05:00,
2013-01-09 20:09:00,39.9,33.0,29.56,West,276,5.0,9.0,76,0.00,,,0.00,WUHU216DAVISVP2,2013-01-10 01:09:00,
2013-01-09 20:10:00,39.9,32.7,29.56,WNW,285,5.0,9.0,75,0.00,,,0.00,WUHU216DAVISVP2,2013-01-10 01:10:00,
2013-01-09 20:14:00,39.9,32.3,29.56,West,281,5.0,9.0,74,0.00,,,0.00,WUHU216DAVISVP2,2013-01-10 01:14:00,
2013-01-09 20:15:00,39.9,32.3,29.56,WNW,285,4.0,9.0,74,0.00,,,0.00,WUHU216DAVISVP2,2013-01-10 01:15:00,
2013-01-09 20:19:00,39.9,32.0,29.56,WNW,300,6.0,9.0,73,0.00,,,0.00,WUHU216DAVISVP2,2013-01-10 01:19:00,
2013-01-09 20:20:00,39.9,32.0,29.56,WNW,292,6.0,9.0,73,0.00,,,0.00,WUHU216DAVISVP2,2013-01-10 01:20:00,
2013-01-09 20:24:00,40.0,31.8,29.57,West,265,6.0,9.0,72,0.00,,,0.00,WUHU216DAVISVP2,2013-01-10 01:24:00,
2013-01-09 20:25:00,40.0,31.8,29.57,WNW,287,5.0,9.0,72,0.00,,,0.00,WUHU216DAVISVP2,2013-01-10 01:25:00,
2013-01-09 20:26:00,40.0,31.8,29.57,WNW,285,4.0,9.0,72,0.00,,,0.00,WUHU216DAVISVP2,2013-01-10 01:26:00,
2013-01-09 20:29:00,39.9,31.3,29.57,West,278,4.0,9.0,71,0.00,,,0.00,WUHU216DAVISVP2,2013-01-10 01:29:00,
2013-01-09 20:30:00,39.9,31.3,29.57,West,267,7.0,9.0,71,0.00,,,0.00,WUHU216DAVISVP2,2013-01-10 01:30:00,
2013-01-09 20:31:00,39.9,31.3,29.57,West,262,8.0,9.0,71,0.00,,,0.00,WUHU216DAVISVP2,2013-01-10 01:31:00,
2013-01-09 20:34:00,40.0,31.1,29.57,WNW,289,6.0,10.0,70,0.00,,,0.00,WUHU216DAVISVP2,2013-01-10 01:34:00,
2013-01-09 20:35:00,40.0,31.1,29.57,WNW,289,5.0,10.0,70,0.00,,,0.00,WUHU216DAVISVP2,2013-01-10 01:35:00,
2013-01-09 20:36:00,40.0,31.1,29.57,WNW,291,6.0,10.0,70,0.00,,,0.00,WUHU216DAVISVP2,2013-01-10 01:36:00,
2013-01-09 20:40:00,40.0,30.7,29.57,West,272,7.0,10.0,69,0.00,,,0.00,WUHU216DAVISVP2,2013-01-10 01:40:00,
2013-01-09 20:41:00,40.0,30.7,29.57,West,266,6.0,10.0,69,0.00,,,0.00,WUHU216DAVISVP2,2013-01-10 01:41:00,
2013-01-09 20:45:00,39.8,30.5,29.57,West,274,4.0,10.0,69,0.00,,,0.00,WUHU216DAVISVP2,2013-01-10 01:45:00,
2013-01-09 20:46:00,39.8,30.5,29.57,West,271,4.0,10.0,69,0.00,,,0.00,WUHU216DAVISVP2,2013-01-10 01:46:00,
2013-01-09 20:50:00,39.6,30.6,29.57,West,270,6.0,10.0,70,0.00,,,0.00,WUHU216DAVISVP2,2013-01-10 01:50:00,
2013-01-09 20:51:00,39.6,30.6,29.57,West,277,6.0,10.0,70,0.00,,,0.00,WUHU216DAVISVP2,2013-01-10 01:51:00,
2013-01-09 20:52:00,39.6,30.3,29.57,West,276,7.0,9.0,69,0.00,,,0.00,WUHU216DAVISVP2,2013-01-10 01:52:00,
2013-01-09 20:55:00,39.6,30.3,29.57,West,278,4.0,9.0,69,0.00,,,0.00,WUHU216DAVISVP2,2013-01-10 01:55:00,
2013-01-09 20:56:00,39.7,30.4,29.58,West,269,5.0,9.0,69,0.00,,,0.00,WUHU216DAVISVP2,2013-01-10 01:56:00,
2013-01-09 20:57:00,39.7,30.4,29.58,WNW,283,7.0,9.0,69,0.00,,,0.00,WUHU216DAVISVP2,2013-01-10 01:57:00,
2013-01-09 21:00:00,39.6,30.3,29.57,West,273,5.0,9.0,69,0.00,,,0.00,WUHU216DAVISVP2,2013-01-10 02:00:00,
2013-01-09 21:01:00,39.6,30.3,29.58,West,271,6.0,9.0,69,0.00,,,0.00,WUHU216DAVISVP2,2013-01-10 02:01:00,
2013-01-09 21:02:00,39.6,30.3,29.58,West,277,5.0,9.0,69,0.00,,,0.00,WUHU216DAVISVP2,2013-01-10 02:02:00,
2013-01-09 21:05:00,39.5,30.2,29.58,West,277,5.0,9.0,69,0.00,,,0.00,WUHU216DAVISVP2,2013-01-10 02:05:00,
2013-01-09 21:06:00,39.5,29.9,29.58,West,272,5.0,9.0,68,0.00,,,0.00,WUHU216DAVISVP2,2013-01-10 02:06:00,
2013-01-09 21:07:00,39.5,29.9,29.58,West,270,6.0,9.0,68,0.00,,,0.00,WUHU216DAVISVP2,2013-01-10 02:07:00,
2013-01-09 21:10:00,39.5,29.9,29.58,WNW,283,5.0,9.0,68,0.00,,,0.00,WUHU216DAVISVP2,2013-01-10 02:10:00,
2013-01-09 21:11:00,39.5,29.9,29.58,WNW,283,5.0,9.0,68,0.00,,,0.00,WUHU216DAVISVP2,2013-01-10 02:11:00,
2013-01-09 21:12:00,39.5,29.9,29.58,WNW,283,4.0,9.0,68,0.00,,,0.00,WUHU216DAVISVP2,2013-01-10 02:12:00,
2013-01-09 21:15:00,39.4,29.4,29.58,WNW,299,5.0,9.0,67,0.00,,,0.00,WUHU216DAVISVP2,2013-01-10 02:15:00,
2013-01-09 21:16:00,39.4,29.4,29.58,WNW,299,6.0,9.0,67,0.00,,,0.00,WUHU216DAVISVP2,2013-01-10 02:16:00,
2013-01-09 21:17:00,39.5,29.2,29.58,WNW,285,5.0,9.0,66,0.00,,,0.00,WUHU216DAVISVP2,2013-01-10 02:17:00,
2013-01-09 21:21:00,39.5,28.8,29.58,West,269,8.0,9.0,65,0.00,,,0.00,WUHU216DAVISVP2,2013-01-10 02:21:00,
2013-01-09 21:22:00,39.5,28.8,29.58,WNW,283,5.0,9.0,65,0.00,,,0.00,WUHU216DAVISVP2,2013-01-10 02:22:00,
2013-01-09 21:26:00,39.4,28.7,29.58,WNW,283,6.0,9.0,65,0.00,,,0.00,WUHU216DAVISVP2,2013-01-10 02:26:00,
2013-01-09 21:27:00,39.5,28.8,29.58,WNW,283,6.0,9.0,65,0.00,,,0.00,WUHU216DAVISVP2,2013-01-10 02:27:00,
2013-01-09 21:28:00,39.5,28.8,29.58,WNW,283,6.0,9.0,65,0.00,,,0.00,WUHU216DAVISVP2,2013-01-10 02:28:00,
2013-01-09 21:31:00,39.4,28.7,29.58,WNW,282,6.0,9.0,65,0.00,,,0.00,WUHU216DAVISVP2,2013-01-10 02:31:00,
2013-01-09 21:32:00,39.3,28.6,29.59,West,274,5.0,9.0,65,0.00,,,0.00,WUHU216DAVISVP2,2013-01-10 02:32:00,
2013-01-09 21:33:00,39.3,28.6,29.59,West,274,6.0,9.0,65,0.00,,,0.00,WUHU216DAVISVP2,2013-01-10 02:33:00,
2013-01-09 21:36:00,39.2,28.5,29.59,WNW,283,5.0,9.0,65,0.00,,,0.00,WUHU216DAVISVP2,2013-01-10 02:36:00,
2013-01-09 21:38:00,39.2,28.5,29.59,WNW,282,5.0,9.0,65,0.00,,,0.00,WUHU216DAVISVP2,2013-01-10 02:38:00,
2013-01-09 21:41:00,39.1,28.4,29.59,West,276,6.0,8.0,65,0.00,,,0.00,WUHU216DAVISVP2,2013-01-10 02:41:00,
2013-01-09 21:43:00,39.1,28.4,29.59,West,275,5.0,8.0,65,0.00,,,0.00,WUHU216DAVISVP2,2013-01-10 02:43:00,
2013-01-09 21:46:00,39.0,28.7,29.59,West,276,4.0,7.0,66,0.00,,,0.00,WUHU216DAVISVP2,2013-01-10 02:46:00,
2013-01-09 21:47:00,38.9,28.2,29.59,West,276,5.0,7.0,65,0.00,,,0.00,WUHU216DAVISVP2,2013-01-10 02:47:00,
2013-01-09 21:48:00,38.9,28.6,29.59,West,276,4.0,7.0,66,0.00,,,0.00,WUHU216DAVISVP2,2013-01-10 02:48:00,
2013-01-09 21:51:00,38.8,28.1,29.59,West,276,5.0,7.0,65,0.00,,,0.00,WUHU216DAVISVP2,2013-01-10 02:51:00,
2013-01-09 21:52:00,38.9,28.2,29.59,West,276,4.0,7.0,65,0.00,,,0.00,WUHU216DAVISVP2,2013-01-10 02:52:00,
2013-01-09 21:53:00,38.8,28.1,29.59,West,276,4.0,7.0,65,0.00,,,0.00,WUHU216DAVISVP2,2013-01-10 02:53:00,
2013-01-09 21:54:00,38.8,28.1,29.59,West,276,4.0,7.0,65,0.00,,,0.00,WUHU216DAVISVP2,2013-01-10 02:54:00,
2013-01-09 21:56:00,38.8,28.1,29.60,West,276,4.0,7.0,65,0.00,,,0.00,WUHU216DAVISVP2,2013-01-10 02:56:00,
2013-01-09 21:57:00,38.8,28.1,29.60,West,276,4.0,7.0,65,0.00,,,0.00,WUHU216DAVISVP2,2013-01-10 02:57:00,
2013-01-09 21:58:00,38.8,28.1,29.60,West,276,5.0,7.0,65,0.00,,,0.00,WUHU216DAVISVP2,2013-01-10 02:58:00,
2013-01-09 21:59:00,38.7,28.0,29.60,WNW,283,6.0,7.0,65,0.00,,,0.00,WUHU216DAVISVP2,2013-01-10 02:59:00,
2013-01-09 22:01:00,38.7,28.0,29.60,West,274,6.0,7.0,65,0.00,,,0.00,WUHU216DAVISVP2,2013-01-10 03:01:00,
2013-01-09 22:02:00,38.7,28.0,29.60,West,274,5.0,7.0,65,0.00,,,0.00,WUHU216DAVISVP2,2013-01-10 03:02:00,
2013-01-09 22:03:00,38.7,28.0,29.60,West,280,5.0,7.0,65,0.00,,,0.00,WUHU216DAVISVP2,2013-01-10 03:03:00,
2013-01-09 22:04:00,38.6,27.9,29.60,West,279,4.0,7.0,65,0.00,,,0.00,WUHU216DAVISVP2,2013-01-10 03:04:00,
2013-01-09 22:06:00,38.6,27.9,29.60,West,280,4.0,7.0,65,0.00,,,0.00,WUHU216DAVISVP2,2013-01-10 03:06:00,
2013-01-09 22:07:00,38.6,27.9,29.60,West,280,4.0,7.0,65,0.00,,,0.00,WUHU216DAVISVP2,2013-01-10 03:07:00,
2013-01-09 22:08:00,38.6,27.9,29.60,West,280,6.0,7.0,65,0.00,,,0.00,WUHU216DAVISVP2,2013-01-10 03:08:00,
2013-01-09 22:09:00,38.6,27.9,29.60,West,280,4.0,7.0,65,0.00,,,0.00,WUHU216DAVISVP2,2013-01-10 03:09:00,
2013-01-09 22:12:00,38.6,27.9,29.60,West,272,6.0,7.0,65,0.00,,,0.00,WUHU216DAVISVP2,2013-01-10 03:12:00,
2013-01-09 22:14:00,38.6,27.5,29.60,West,272,4.0,7.0,64,0.00,,,0.00,WUHU216DAVISVP2,2013-01-10 03:14:00,
2013-01-09 22:17:00,38.6,27.9,29.60,West,272,5.0,7.0,65,0.00,,,0.00,WUHU216DAVISVP2,2013-01-10 03:17:00,
2013-01-09 22:19:00,38.6,27.9,29.60,West,272,5.0,7.0,65,0.00,,,0.00,WUHU216DAVISVP2,2013-01-10 03:19:00,
2013-01-09 22:22:00,38.5,27.8,29.60,West,272,4.0,7.0,65,0.00,,,0.00,WUHU216DAVISVP2,2013-01-10 03:22:00,
2013-01-09 22:24:00,38.5,27.5,29.60,WNW,283,4.0,7.0,64,0.00,,,0.00,WUHU216DAVISVP2,2013-01-10 03:24:00,
2013-01-09 22:27:00,38.4,27.7,29.61,WNW,282,4.0,7.0,65,0.00,,,0.00,WUHU216DAVISVP2,2013-01-10 03:27:00,
2013-01-09 22:29:00,38.3,27.6,29.61,WNW,283,5.0,7.0,65,0.00,,,0.00,WUHU216DAVISVP2,2013-01-10 03:29:00,
2013-01-09 22:30:00,38.3,27.6,29.61,WNW,282,5.0,7.0,65,0.00,,,0.00,WUHU216DAVISVP2,2013-01-10 03:30:00,
2013-01-09 22:32:00,38.2,27.9,29.61,WNW,283,2.0,7.0,66,0.00,,,0.00,WUHU216DAVISVP2,2013-01-10 03:32:00,
2013-01-09 22:34:00,38.2,27.9,29.61,West,266,7.0,7.0,66,0.00,,,0.00,WUHU216DAVISVP2,2013-01-10 03:34:00,
2013-01-09 22:35:00,38.1,27.8,29.61,West,263,6.0,7.0,66,0.00,,,0.00,WUHU216DAVISVP2,2013-01-10 03:35:00,
2013-01-09 22:37:00,38.1,27.8,29.61,WSW,254,7.0,9.0,66,0.00,,,0.00,WUHU216DAVISVP2,2013-01-10 03:37:00,
2013-01-09 22:39:00,38.1,27.8,29.61,West,269,5.0,9.0,66,0.00,,,0.00,WUHU216DAVISVP2,2013-01-10 03:39:00,
2013-01-09 22:40:00,38.1,27.8,29.61,West,268,4.0,9.0,66,0.00,,,0.00,WUHU216DAVISVP2,2013-01-10 03:40:00,
2013-01-09 22:42:00,38.0,27.7,29.61,West,267,6.0,9.0,66,0.00,,,0.00,WUHU216DAVISVP2,2013-01-10 03:42:00,
2013-01-09 22:43:00,38.0,27.4,29.61,West,266,6.0,9.0,65,0.00,,,0.00,WUHU216DAVISVP2,2013-01-10 03:43:00,
2013-01-09 22:44:00,37.9,27.3,29.62,West,265,5.0,9.0,65,0.00,,,0.00,WUHU216DAVISVP2,2013-01-10 03:44:00,
2013-01-09 22:45:00,37.9,27.3,29.61,West,265,5.0,9.0,65,0.00,,,0.00,WUHU216DAVISVP2,2013-01-10 03:45:00,
2013-01-09 22:47:00,37.9,27.3,29.61,West,264,4.0,9.0,65,0.00,,,0.00,WUHU216DAVISVP2,2013-01-10 03:47:00,
2013-01-09 22:48:00,37.8,27.2,29.61,West,264,5.0,9.0,65,0.00,,,0.00,WUHU216DAVISVP2,2013-01-10 03:48:00,
2013-01-09 22:49:00,37.8,27.2,29.61,West,264,4.0,9.0,65,0.00,,,0.00,WUHU216DAVISVP2,2013-01-10 03:49:00,
2013-01-09 22:51:00,37.8,27.2,29.61,West,264,5.0,9.0,65,0.00,,,0.00,WUHU216DAVISVP2,2013-01-10 03:51:00,
2013-01-09 22:53:00,37.7,27.1,29.61,West,264,4.0,9.0,65,0.00,,,0.00,WUHU216DAVISVP2,2013-01-10 03:53:00,
2013-01-09 22:54:00,37.6,27.0,29.61,West,264,4.0,8.0,65,0.00,,,0.00,WUHU216DAVISVP2,2013-01-10 03:54:00,
2013-01-09 22:56:00,37.6,27.0,29.62,West,264,4.0,8.0,65,0.00,,,0.00,WUHU216DAVISVP2,2013-01-10 03:56:00,
2013-01-09 22:57:00,37.6,27.0,29.62,West,264,5.0,7.0,65,0.00,,,0.00,WUHU216DAVISVP2,2013-01-10 03:57:00,
2013-01-09 22:58:00,37.6,27.0,29.62,West,264,4.0,7.0,65,0.00,,,0.00,WUHU216DAVISVP2,2013-01-10 03:58:00,
2013-01-09 23:00:00,37.6,27.0,29.62,West,264,4.0,7.0,65,0.00,,,0.00,WUHU216DAVISVP2,2013-01-10 04:00:00,
2013-01-09 23:01:00,37.6,27.0,29.62,West,264,5.0,7.0,65,0.00,,,0.00,WUHU216DAVISVP2,2013-01-10 04:01:00,
2013-01-09 23:03:00,37.6,27.0,29.62,West,264,2.0,7.0,65,0.00,,,0.00,WUHU216DAVISVP2,2013-01-10 04:03:00,
2013-01-09 23:05:00,37.6,26.6,29.62,West,264,4.0,7.0,64,0.00,,,0.00,WUHU216DAVISVP2,2013-01-10 04:05:00,
2013-01-09 23:06:00,37.6,26.6,29.62,West,278,6.0,7.0,64,0.00,,,0.00,WUHU216DAVISVP2,2013-01-10 04:06:00,
2013-01-09 23:08:00,37.6,26.6,29.62,West,278,5.0,7.0,64,0.00,,,0.00,WUHU216DAVISVP2,2013-01-10 04:08:00,
2013-01-09 23:10:00,37.7,26.3,29.62,West,278,4.0,7.0,63,0.00,,,0.00,WUHU216DAVISVP2,2013-01-10 04:10:00,
2013-01-09 23:11:00,37.7,26.3,29.62,West,276,6.0,7.0,63,0.00,,,0.00,WUHU216DAVISVP2,2013-01-10 04:11:00,
2013-01-09 23:13:00,37.7,25.9,29.62,West,276,4.0,7.0,62,0.00,,,0.00,WUHU216DAVISVP2,2013-01-10 04:13:00,
2013-01-09 23:14:00,37.7,25.9,29.62,West,276,4.0,7.0,62,0.00,,,0.00,WUHU216DAVISVP2,2013-01-10 04:14:00,
2013-01-09 23:15:00,37.8,26.0,29.62,West,276,4.0,7.0,62,0.00,,,0.00,WUHU216DAVISVP2,2013-01-10 04:15:00,
2013-01-09 23:17:00,37.8,26.0,29.62,NW,304,4.0,7.0,62,0.00,,,0.00,WUHU216DAVISVP2,2013-01-10 04:17:00,
2013-01-09 23:18:00,37.9,25.7,29.62,NW,304,2.0,7.0,61,0.00,,,0.00,WUHU216DAVISVP2,2013-01-10 04:18:00,
2013-01-09 23:19:00,37.9,25.7,29.62,NW,304,4.0,7.0,61,0.00,,,0.00,WUHU216DAVISVP2,2013-01-10 04:19:00,
2013-01-09 23:20:00,37.9,25.7,29.62,NW,304,4.0,7.0,61,0.00,,,0.00,WUHU216DAVISVP2,2013-01-10 04:20:00,
2013-01-09 23:22:00,38.0,25.7,29.62,NW,319,5.0,7.0,61,0.00,,,0.00,WUHU216DAVISVP2,2013-01-10 04:22:00,
2013-01-09 23:24:00,38.0,25.3,29.62,NW,319,5.0,7.0,60,0.00,,,0.00,WUHU216DAVISVP2,2013-01-10 04:24:00,
2013-01-09 23:25:00,38.1,25.4,29.62,NW,319,4.0,6.0,60,0.00,,,0.00,WUHU216DAVISVP2,2013-01-10 04:25:00,
2013-01-09 23:27:00,37.9,25.2,29.62,NW,319,2.0,6.0,60,0.00,,,0.00,WUHU216DAVISVP2,2013-01-10 04:27:00,
2013-01-09 23:29:00,37.8,25.2,29.62,WNW,302,4.0,6.0,60,0.00,,,0.00,WUHU216DAVISVP2,2013-01-10 04:29:00,
2013-01-09 23:30:00,37.8,25.2,29.62,WNW,302,4.0,6.0,60,0.00,,,0.00,WUHU216DAVISVP2,2013-01-10 04:30:00,
2013-01-09 23:33:00,37.8,25.2,29.63,WNW,300,4.0,6.0,60,0.00,,,0.00,WUHU216DAVISVP2,2013-01-10 04:33:00,
2013-01-09 23:34:00,37.8,25.2,29.63,WNW,300,4.0,6.0,60,0.00,,,0.00,WUHU216DAVISVP2,2013-01-10 04:34:00,
2013-01-09 23:35:00,37.8,25.6,29.63,WNW,300,4.0,6.0,61,0.00,,,0.00,WUHU216DAVISVP2,2013-01-10 04:35:00,
2013-01-09 23:38:00,37.6,25.4,29.63,WNW,300,4.0,6.0,61,0.00,,,0.00,WUHU216DAVISVP2,2013-01-10 04:38:00,
2013-01-09 23:39:00,37.6,25.4,29.63,WNW,300,5.0,6.0,61,0.00,,,0.00,WUHU216DAVISVP2,2013-01-10 04:39:00,
2013-01-09 23:40:00,37.5,25.3,29.64,WNW,300,4.0,6.0,61,0.00,,,0.00,WUHU216DAVISVP2,2013-01-10 04:40:00,
2013-01-09 23:43:00,37.4,25.6,29.64,West,272,5.0,5.0,62,0.00,,,0.00,WUHU216DAVISVP2,2013-01-10 04:43:00,
2013-01-09 23:44:00,37.3,25.5,29.64,West,272,3.0,5.0,62,0.00,,,0.00,WUHU216DAVISVP2,2013-01-10 04:44:00,
2013-01-09 23:45:00,37.2,25.4,29.64,West,272,2.0,5.0,62,0.00,,,0.00,WUHU216DAVISVP2,2013-01-10 04:45:00,
2013-01-09 23:48:00,37.1,25.3,29.64,West,272,4.0,5.0,62,0.00,,,0.00,WUHU216DAVISVP2,2013-01-10 04:48:00,
2013-01-09 23:49:00,37.1,25.3,29.64,West,272,4.0,5.0,62,0.00,,,0.00,WUHU216DAVISVP2,2013-01-10 04:49:00,
2013-01-09 23:50:00,37.1,25.3,29.64,West,272,5.0,5.0,62,0.00,,,0.00,WUHU216DAVISVP2,2013-01-10 04:50:00,
2013-01-09 23:53:00,37.1,25.3,29.64,West,272,4.0,6.0,62,0.00,,,0.00,WUHU216DAVISVP2,2013-01-10 04:53:00,
2013-01-09 23:55:00,37.1,25.3,29.65,West,272,4.0,6.0,62,0.00,,,0.00,WUHU216DAVISVP2,2013-01-10 04:55:00,
2013-01-09 23:58:00,37.0,25.3,29.65,West,272,5.0,6.0,62,0.00,,,0.00,WUHU216DAVISVP2,2013-01-10 04:58:00,